<?xml version="1.0" encoding="UTF-8" standalone="no" ?>
<gpx xmlns="http://www.topografix.com/GPX/1/1" xmlns:xsi="http://www.w3.org/2001/XMLSchema-instance" xsi:schemaLocation="http://www.topografix.com/GPX/1/1 http://www.topografix.com/GPX/1/1/gpx.xsd" version="1.1" creator="VisuGPX - https://www.visugpx.com">
  <metadata>
    <name>RANDO VALSONNE_28KM</name>
    <desc><![CDATA[Randonnée pédestre du sous des écoles de Valsonne le 16 Janvier 2022]]></desc>
  </metadata>
  <wpt lat="45.9577" lon="4.38744">
    <ele>767</ele>
    <name><![CDATA[relai 1]]></name>
    <type><![CDATA[restaurant]]></type>
  </wpt>
  <wpt lat="45.985" lon="4.43851">
    <ele>727.4</ele>
    <name><![CDATA[relai croix de l'Orme]]></name>
    <type><![CDATA[restaurant]]></type>
  </wpt>
  <wpt lat="45.97287" lon="4.45262">
    <ele>789.1</ele>
    <name><![CDATA[relai croix de Chal]]></name>
    <type><![CDATA[restaurant]]></type>
  </wpt>
  <wpt lat="45.94648" lon="4.43091">
    <ele>479.5</ele>
    <name><![CDATA[RANDO 29KM 1015D+]]></name>
    <type><![CDATA[Generic]]></type>
  </wpt>
  <trk>
    <name><![CDATA[RANDO 29KM 1015D+]]></name>
    <extensions>
      <line xmlns="http://www.topografix.com/GPX/gpx_style/0/2">
        <color>0000ff</color>
        <width>6</width>
      </line>
    </extensions>
    <trkseg>
      <trkpt lat="45.94648" lon="4.43091">
        <ele>479.5</ele>
        <time>2021-12-21T10:15:59Z</time>
      </trkpt>
      <trkpt lat="45.94645" lon="4.43091">
        <ele>479</ele>
        <time>2021-12-21T10:16:19Z</time>
      </trkpt>
      <trkpt lat="45.94603" lon="4.43261">
        <ele>488.4</ele>
        <time>2021-12-21T10:16:26Z</time>
      </trkpt>
      <trkpt lat="45.94597" lon="4.43266">
        <ele>487.8</ele>
        <time>2021-12-21T10:16:40Z</time>
      </trkpt>
      <trkpt lat="45.94581" lon="4.43306">
        <ele>487.5</ele>
        <time>2021-12-21T10:16:42Z</time>
      </trkpt>
      <trkpt lat="45.94579" lon="4.43308">
        <ele>487.1</ele>
        <time>2021-12-21T10:16:48Z</time>
      </trkpt>
      <trkpt lat="45.94577" lon="4.43302">
        <ele>486.1</ele>
        <time>2021-12-21T10:16:55Z</time>
      </trkpt>
      <trkpt lat="45.9458" lon="4.43286">
        <ele>485.6</ele>
        <time>2021-12-21T10:17:00Z</time>
      </trkpt>
      <trkpt lat="45.9458" lon="4.43279">
        <ele>485</ele>
        <time>2021-12-21T10:17:06Z</time>
      </trkpt>
      <trkpt lat="45.94572" lon="4.43258">
        <ele>480.9</ele>
        <time>2021-12-21T10:17:26Z</time>
      </trkpt>
      <trkpt lat="45.94541" lon="4.43333">
        <ele>477.8</ele>
        <time>2021-12-21T10:17:41Z</time>
      </trkpt>
      <trkpt lat="45.94527" lon="4.43386">
        <ele>473</ele>
        <time>2021-12-21T10:18:00Z</time>
      </trkpt>
      <trkpt lat="45.94529" lon="4.43398">
        <ele>471.5</ele>
        <time>2021-12-21T10:18:07Z</time>
      </trkpt>
      <trkpt lat="45.94553" lon="4.43458">
        <ele>468.1</ele>
        <time>2021-12-21T10:18:09Z</time>
      </trkpt>
      <trkpt lat="45.94563" lon="4.43503">
        <ele>463</ele>
        <time>2021-12-21T10:18:22Z</time>
      </trkpt>
      <trkpt lat="45.94579" lon="4.43534">
        <ele>462.8</ele>
        <time>2021-12-21T10:18:38Z</time>
      </trkpt>
      <trkpt lat="45.94597" lon="4.43556">
        <ele>462.5</ele>
        <time>2021-12-21T10:18:40Z</time>
      </trkpt>
      <trkpt lat="45.94617" lon="4.43576">
        <ele>463.6</ele>
        <time>2021-12-21T10:18:49Z</time>
      </trkpt>
      <trkpt lat="45.94643" lon="4.43623">
        <ele>464</ele>
        <time>2021-12-21T10:19:03Z</time>
      </trkpt>
      <trkpt lat="45.94662" lon="4.43638">
        <ele>465.7</ele>
        <time>2021-12-21T10:19:21Z</time>
      </trkpt>
      <trkpt lat="45.94683" lon="4.43664">
        <ele>467.7</ele>
        <time>2021-12-21T10:19:35Z</time>
      </trkpt>
      <trkpt lat="45.94687" lon="4.43672">
        <ele>467.9</ele>
        <time>2021-12-21T10:19:50Z</time>
      </trkpt>
      <trkpt lat="45.94687" lon="4.43675">
        <ele>468.1</ele>
        <time>2021-12-21T10:20:10Z</time>
      </trkpt>
      <trkpt lat="45.94684" lon="4.4368">
        <ele>468.3</ele>
        <time>2021-12-21T10:20:14Z</time>
      </trkpt>
      <trkpt lat="45.94652" lon="4.4368">
        <ele>470.8</ele>
        <time>2021-12-21T10:20:30Z</time>
      </trkpt>
      <trkpt lat="45.94627" lon="4.43684">
        <ele>475.5</ele>
        <time>2021-12-21T10:20:48Z</time>
      </trkpt>
      <trkpt lat="45.94591" lon="4.43684">
        <ele>482</ele>
        <time>2021-12-21T10:21:04Z</time>
      </trkpt>
      <trkpt lat="45.9452" lon="4.43668">
        <ele>488.1</ele>
        <time>2021-12-21T10:21:20Z</time>
      </trkpt>
      <trkpt lat="45.94521" lon="4.43658">
        <ele>486.2</ele>
        <time>2021-12-21T10:21:30Z</time>
      </trkpt>
      <trkpt lat="45.94509" lon="4.43607">
        <ele>477.3</ele>
        <time>2021-12-21T10:21:45Z</time>
      </trkpt>
      <trkpt lat="45.94489" lon="4.43572">
        <ele>471.7</ele>
        <time>2021-12-21T10:21:48Z</time>
      </trkpt>
      <trkpt lat="45.9447" lon="4.43545">
        <ele>467</ele>
        <time>2021-12-21T10:21:56Z</time>
      </trkpt>
      <trkpt lat="45.94446" lon="4.43512">
        <ele>460.8</ele>
        <time>2021-12-21T10:22:10Z</time>
      </trkpt>
      <trkpt lat="45.94415" lon="4.4346">
        <ele>451.5</ele>
        <time>2021-12-21T10:22:20Z</time>
      </trkpt>
      <trkpt lat="45.94389" lon="4.43434">
        <ele>447.1</ele>
        <time>2021-12-21T10:22:38Z</time>
      </trkpt>
      <trkpt lat="45.94361" lon="4.43411">
        <ele>442.5</ele>
        <time>2021-12-21T10:22:44Z</time>
      </trkpt>
      <trkpt lat="45.94378" lon="4.43393">
        <ele>442.9</ele>
        <time>2021-12-21T10:22:48Z</time>
      </trkpt>
      <trkpt lat="45.94361" lon="4.43411">
        <ele>442.5</ele>
        <time>2021-12-21T10:23:06Z</time>
      </trkpt>
      <trkpt lat="45.94347" lon="4.43422">
        <ele>442.6</ele>
        <time>2021-12-21T10:23:11Z</time>
      </trkpt>
      <trkpt lat="45.94343" lon="4.43408">
        <ele>439.8</ele>
        <time>2021-12-21T10:23:24Z</time>
      </trkpt>
      <trkpt lat="45.94364" lon="4.43326">
        <ele>437.7</ele>
        <time>2021-12-21T10:23:38Z</time>
      </trkpt>
      <trkpt lat="45.94373" lon="4.433">
        <ele>437</ele>
        <time>2021-12-21T10:23:55Z</time>
      </trkpt>
      <trkpt lat="45.94386" lon="4.43288">
        <ele>438</ele>
        <time>2021-12-21T10:24:07Z</time>
      </trkpt>
      <trkpt lat="45.9444" lon="4.43217">
        <ele>443.9</ele>
        <time>2021-12-21T10:24:23Z</time>
      </trkpt>
      <trkpt lat="45.94438" lon="4.43212">
        <ele>443.2</ele>
        <time>2021-12-21T10:24:27Z</time>
      </trkpt>
      <trkpt lat="45.94439" lon="4.43195">
        <ele>442.9</ele>
        <time>2021-12-21T10:24:33Z</time>
      </trkpt>
      <trkpt lat="45.9445" lon="4.43158">
        <ele>442.1</ele>
        <time>2021-12-21T10:24:44Z</time>
      </trkpt>
      <trkpt lat="45.94455" lon="4.43144">
        <ele>441.7</ele>
        <time>2021-12-21T10:25:00Z</time>
      </trkpt>
      <trkpt lat="45.94475" lon="4.43114">
        <ele>442.2</ele>
        <time>2021-12-21T10:25:14Z</time>
      </trkpt>
      <trkpt lat="45.9451" lon="4.43052">
        <ele>442.9</ele>
        <time>2021-12-21T10:25:22Z</time>
      </trkpt>
      <trkpt lat="45.94538" lon="4.43009">
        <ele>443.2</ele>
        <time>2021-12-21T10:25:42Z</time>
      </trkpt>
      <trkpt lat="45.94579" lon="4.42932">
        <ele>444.5</ele>
        <time>2021-12-21T10:25:49Z</time>
      </trkpt>
      <trkpt lat="45.94586" lon="4.42923">
        <ele>444.4</ele>
        <time>2021-12-21T10:25:57Z</time>
      </trkpt>
      <trkpt lat="45.9464" lon="4.42856">
        <ele>444.9</ele>
        <time>2021-12-21T10:26:00Z</time>
      </trkpt>
      <trkpt lat="45.94644" lon="4.42844">
        <ele>444.8</ele>
        <time>2021-12-21T10:26:03Z</time>
      </trkpt>
      <trkpt lat="45.94652" lon="4.42838">
        <ele>445.1</ele>
        <time>2021-12-21T10:26:06Z</time>
      </trkpt>
      <trkpt lat="45.94668" lon="4.42842">
        <ele>446.5</ele>
        <time>2021-12-21T10:26:19Z</time>
      </trkpt>
      <trkpt lat="45.94674" lon="4.42851">
        <ele>447.6</ele>
        <time>2021-12-21T10:26:33Z</time>
      </trkpt>
      <trkpt lat="45.94717" lon="4.42799">
        <ele>448.6</ele>
        <time>2021-12-21T10:26:51Z</time>
      </trkpt>
      <trkpt lat="45.94723" lon="4.42794">
        <ele>448.8</ele>
        <time>2021-12-21T10:27:09Z</time>
      </trkpt>
      <trkpt lat="45.94759" lon="4.42763">
        <ele>450.2</ele>
        <time>2021-12-21T10:27:28Z</time>
      </trkpt>
      <trkpt lat="45.94785" lon="4.42737">
        <ele>451.5</ele>
        <time>2021-12-21T10:27:40Z</time>
      </trkpt>
      <trkpt lat="45.94822" lon="4.42688">
        <ele>453.1</ele>
        <time>2021-12-21T10:27:44Z</time>
      </trkpt>
      <trkpt lat="45.94853" lon="4.42658">
        <ele>455.6</ele>
        <time>2021-12-21T10:27:58Z</time>
      </trkpt>
      <trkpt lat="45.94862" lon="4.42653">
        <ele>456.3</ele>
        <time>2021-12-21T10:28:10Z</time>
      </trkpt>
      <trkpt lat="45.94888" lon="4.42584">
        <ele>453.9</ele>
        <time>2021-12-21T10:28:17Z</time>
      </trkpt>
      <trkpt lat="45.94889" lon="4.42575">
        <ele>453.3</ele>
        <time>2021-12-21T10:28:35Z</time>
      </trkpt>
      <trkpt lat="45.94877" lon="4.42549">
        <ele>451.9</ele>
        <time>2021-12-21T10:28:55Z</time>
      </trkpt>
      <trkpt lat="45.94864" lon="4.42536">
        <ele>453</ele>
        <time>2021-12-21T10:29:07Z</time>
      </trkpt>
      <trkpt lat="45.94854" lon="4.42534">
        <ele>454.8</ele>
        <time>2021-12-21T10:29:24Z</time>
      </trkpt>
      <trkpt lat="45.94862" lon="4.42482">
        <ele>457.8</ele>
        <time>2021-12-21T10:29:28Z</time>
      </trkpt>
      <trkpt lat="45.94872" lon="4.42459">
        <ele>459</ele>
        <time>2021-12-21T10:29:43Z</time>
      </trkpt>
      <trkpt lat="45.94887" lon="4.42431">
        <ele>458.4</ele>
        <time>2021-12-21T10:30:00Z</time>
      </trkpt>
      <trkpt lat="45.94902" lon="4.424">
        <ele>459.2</ele>
        <time>2021-12-21T10:30:05Z</time>
      </trkpt>
      <trkpt lat="45.94907" lon="4.42383">
        <ele>459.4</ele>
        <time>2021-12-21T10:30:09Z</time>
      </trkpt>
      <trkpt lat="45.94909" lon="4.42368">
        <ele>459.8</ele>
        <time>2021-12-21T10:30:12Z</time>
      </trkpt>
      <trkpt lat="45.94909" lon="4.42351">
        <ele>460.8</ele>
        <time>2021-12-21T10:30:31Z</time>
      </trkpt>
      <trkpt lat="45.94902" lon="4.42272">
        <ele>463.9</ele>
        <time>2021-12-21T10:30:34Z</time>
      </trkpt>
      <trkpt lat="45.94898" lon="4.42247">
        <ele>465.6</ele>
        <time>2021-12-21T10:30:36Z</time>
      </trkpt>
      <trkpt lat="45.94889" lon="4.42219">
        <ele>468</ele>
        <time>2021-12-21T10:30:45Z</time>
      </trkpt>
      <trkpt lat="45.94883" lon="4.4219">
        <ele>470.8</ele>
        <time>2021-12-21T10:30:56Z</time>
      </trkpt>
      <trkpt lat="45.94878" lon="4.42157">
        <ele>471.1</ele>
        <time>2021-12-21T10:31:06Z</time>
      </trkpt>
      <trkpt lat="45.94872" lon="4.42135">
        <ele>471.5</ele>
        <time>2021-12-21T10:31:17Z</time>
      </trkpt>
      <trkpt lat="45.94845" lon="4.42094">
        <ele>474.8</ele>
        <time>2021-12-21T10:31:37Z</time>
      </trkpt>
      <trkpt lat="45.94841" lon="4.42087">
        <ele>475.1</ele>
        <time>2021-12-21T10:31:49Z</time>
      </trkpt>
      <trkpt lat="45.94834" lon="4.42066">
        <ele>476.9</ele>
        <time>2021-12-21T10:32:00Z</time>
      </trkpt>
      <trkpt lat="45.94829" lon="4.4204">
        <ele>481.4</ele>
        <time>2021-12-21T10:32:12Z</time>
      </trkpt>
      <trkpt lat="45.94833" lon="4.42041">
        <ele>481.8</ele>
        <time>2021-12-21T10:32:31Z</time>
      </trkpt>
      <trkpt lat="45.94838" lon="4.42044">
        <ele>482</ele>
        <time>2021-12-21T10:32:49Z</time>
      </trkpt>
      <trkpt lat="45.9486" lon="4.42062">
        <ele>480.9</ele>
        <time>2021-12-21T10:32:52Z</time>
      </trkpt>
      <trkpt lat="45.9487" lon="4.42066">
        <ele>481.1</ele>
        <time>2021-12-21T10:33:12Z</time>
      </trkpt>
      <trkpt lat="45.94884" lon="4.42064">
        <ele>483.2</ele>
        <time>2021-12-21T10:33:18Z</time>
      </trkpt>
      <trkpt lat="45.94898" lon="4.42053">
        <ele>485</ele>
        <time>2021-12-21T10:33:29Z</time>
      </trkpt>
      <trkpt lat="45.94925" lon="4.42013">
        <ele>487.6</ele>
        <time>2021-12-21T10:33:33Z</time>
      </trkpt>
      <trkpt lat="45.94936" lon="4.42002">
        <ele>488.6</ele>
        <time>2021-12-21T10:33:40Z</time>
      </trkpt>
      <trkpt lat="45.94947" lon="4.41996">
        <ele>489.1</ele>
        <time>2021-12-21T10:34:00Z</time>
      </trkpt>
      <trkpt lat="45.94968" lon="4.41992">
        <ele>488.7</ele>
        <time>2021-12-21T10:34:14Z</time>
      </trkpt>
      <trkpt lat="45.94975" lon="4.41987">
        <ele>488.9</ele>
        <time>2021-12-21T10:34:27Z</time>
      </trkpt>
      <trkpt lat="45.95" lon="4.41976">
        <ele>485.5</ele>
        <time>2021-12-21T10:34:46Z</time>
      </trkpt>
      <trkpt lat="45.95014" lon="4.41964">
        <ele>483.6</ele>
        <time>2021-12-21T10:34:53Z</time>
      </trkpt>
      <trkpt lat="45.9503" lon="4.41944">
        <ele>481.1</ele>
        <time>2021-12-21T10:35:04Z</time>
      </trkpt>
      <trkpt lat="45.95047" lon="4.41917">
        <ele>477.6</ele>
        <time>2021-12-21T10:35:14Z</time>
      </trkpt>
      <trkpt lat="45.95056" lon="4.41911">
        <ele>475.6</ele>
        <time>2021-12-21T10:35:25Z</time>
      </trkpt>
      <trkpt lat="45.95068" lon="4.41909">
        <ele>475.5</ele>
        <time>2021-12-21T10:35:33Z</time>
      </trkpt>
      <trkpt lat="45.95075" lon="4.41914">
        <ele>475.1</ele>
        <time>2021-12-21T10:35:45Z</time>
      </trkpt>
      <trkpt lat="45.95078" lon="4.4192">
        <ele>474.9</ele>
        <time>2021-12-21T10:36:05Z</time>
      </trkpt>
      <trkpt lat="45.95109" lon="4.41997">
        <ele>478.5</ele>
        <time>2021-12-21T10:36:17Z</time>
      </trkpt>
      <trkpt lat="45.9511" lon="4.41994">
        <ele>478.7</ele>
        <time>2021-12-21T10:36:32Z</time>
      </trkpt>
      <trkpt lat="45.95131" lon="4.41882">
        <ele>486.5</ele>
        <time>2021-12-21T10:36:45Z</time>
      </trkpt>
      <trkpt lat="45.95137" lon="4.41757">
        <ele>494.4</ele>
        <time>2021-12-21T10:36:52Z</time>
      </trkpt>
      <trkpt lat="45.95141" lon="4.41729">
        <ele>496.5</ele>
        <time>2021-12-21T10:36:59Z</time>
      </trkpt>
      <trkpt lat="45.95141" lon="4.41671">
        <ele>499.9</ele>
        <time>2021-12-21T10:37:09Z</time>
      </trkpt>
      <trkpt lat="45.95148" lon="4.41623">
        <ele>503.1</ele>
        <time>2021-12-21T10:37:26Z</time>
      </trkpt>
      <trkpt lat="45.95156" lon="4.41502">
        <ele>509.7</ele>
        <time>2021-12-21T10:37:39Z</time>
      </trkpt>
      <trkpt lat="45.95152" lon="4.4132">
        <ele>517.4</ele>
        <time>2021-12-21T10:37:52Z</time>
      </trkpt>
      <trkpt lat="45.95158" lon="4.41227">
        <ele>521.7</ele>
        <time>2021-12-21T10:37:56Z</time>
      </trkpt>
      <trkpt lat="45.95157" lon="4.41192">
        <ele>523.9</ele>
        <time>2021-12-21T10:38:02Z</time>
      </trkpt>
      <trkpt lat="45.95163" lon="4.41188">
        <ele>527.3</ele>
        <time>2021-12-21T10:38:16Z</time>
      </trkpt>
      <trkpt lat="45.95173" lon="4.41189">
        <ele>530</ele>
        <time>2021-12-21T10:38:32Z</time>
      </trkpt>
      <trkpt lat="45.95179" lon="4.41192">
        <ele>530.8</ele>
        <time>2021-12-21T10:38:41Z</time>
      </trkpt>
      <trkpt lat="45.95184" lon="4.41199">
        <ele>531.4</ele>
        <time>2021-12-21T10:38:58Z</time>
      </trkpt>
      <trkpt lat="45.95188" lon="4.4121">
        <ele>532.9</ele>
        <time>2021-12-21T10:39:09Z</time>
      </trkpt>
      <trkpt lat="45.95189" lon="4.41233">
        <ele>534.7</ele>
        <time>2021-12-21T10:39:25Z</time>
      </trkpt>
      <trkpt lat="45.95198" lon="4.41299">
        <ele>539.5</ele>
        <time>2021-12-21T10:39:29Z</time>
      </trkpt>
      <trkpt lat="45.95221" lon="4.41371">
        <ele>545.6</ele>
        <time>2021-12-21T10:39:36Z</time>
      </trkpt>
      <trkpt lat="45.95238" lon="4.41443">
        <ele>546.7</ele>
        <time>2021-12-21T10:39:44Z</time>
      </trkpt>
      <trkpt lat="45.95245" lon="4.41459">
        <ele>548.3</ele>
        <time>2021-12-21T10:39:49Z</time>
      </trkpt>
      <trkpt lat="45.95255" lon="4.41465">
        <ele>551.4</ele>
        <time>2021-12-21T10:40:03Z</time>
      </trkpt>
      <trkpt lat="45.95278" lon="4.4152">
        <ele>556.6</ele>
        <time>2021-12-21T10:40:17Z</time>
      </trkpt>
      <trkpt lat="45.95284" lon="4.4154">
        <ele>558.8</ele>
        <time>2021-12-21T10:40:34Z</time>
      </trkpt>
      <trkpt lat="45.95286" lon="4.41558">
        <ele>559.9</ele>
        <time>2021-12-21T10:40:52Z</time>
      </trkpt>
      <trkpt lat="45.95287" lon="4.41638">
        <ele>557.8</ele>
        <time>2021-12-21T10:40:54Z</time>
      </trkpt>
      <trkpt lat="45.9529" lon="4.41652">
        <ele>558.4</ele>
        <time>2021-12-21T10:41:07Z</time>
      </trkpt>
      <trkpt lat="45.95295" lon="4.41669">
        <ele>560.3</ele>
        <time>2021-12-21T10:41:10Z</time>
      </trkpt>
      <trkpt lat="45.95319" lon="4.41707">
        <ele>564.9</ele>
        <time>2021-12-21T10:41:23Z</time>
      </trkpt>
      <trkpt lat="45.95358" lon="4.41737">
        <ele>568.3</ele>
        <time>2021-12-21T10:41:36Z</time>
      </trkpt>
      <trkpt lat="45.95365" lon="4.41492">
        <ele>597.8</ele>
        <time>2021-12-21T10:41:56Z</time>
      </trkpt>
      <trkpt lat="45.95421" lon="4.41312">
        <ele>623.5</ele>
        <time>2021-12-21T10:42:06Z</time>
      </trkpt>
      <trkpt lat="45.95471" lon="4.41186">
        <ele>637.1</ele>
        <time>2021-12-21T10:42:21Z</time>
      </trkpt>
      <trkpt lat="45.95545" lon="4.41025">
        <ele>655.7</ele>
        <time>2021-12-21T10:42:23Z</time>
      </trkpt>
      <trkpt lat="45.956" lon="4.40929">
        <ele>656</ele>
        <time>2021-12-21T10:42:42Z</time>
      </trkpt>
      <trkpt lat="45.95651" lon="4.40876">
        <ele>656.8</ele>
        <time>2021-12-21T10:42:45Z</time>
      </trkpt>
      <trkpt lat="45.957" lon="4.40848">
        <ele>663.4</ele>
        <time>2021-12-21T10:42:59Z</time>
      </trkpt>
      <trkpt lat="45.95755" lon="4.40858">
        <ele>665.8</ele>
        <time>2021-12-21T10:43:13Z</time>
      </trkpt>
      <trkpt lat="45.95843" lon="4.40917">
        <ele>662.7</ele>
        <time>2021-12-21T10:43:27Z</time>
      </trkpt>
      <trkpt lat="45.95891" lon="4.40959">
        <ele>660.5</ele>
        <time>2021-12-21T10:43:34Z</time>
      </trkpt>
      <trkpt lat="45.95913" lon="4.40962">
        <ele>662</ele>
        <time>2021-12-21T10:43:44Z</time>
      </trkpt>
      <trkpt lat="45.95932" lon="4.40942">
        <ele>666.4</ele>
        <time>2021-12-21T10:43:53Z</time>
      </trkpt>
      <trkpt lat="45.95935" lon="4.40892">
        <ele>675.5</ele>
        <time>2021-12-21T10:44:07Z</time>
      </trkpt>
      <trkpt lat="45.95933" lon="4.40858">
        <ele>679</ele>
        <time>2021-12-21T10:44:11Z</time>
      </trkpt>
      <trkpt lat="45.95888" lon="4.40789">
        <ele>687.3</ele>
        <time>2021-12-21T10:44:13Z</time>
      </trkpt>
      <trkpt lat="45.95788" lon="4.40632">
        <ele>703.8</ele>
        <time>2021-12-21T10:44:19Z</time>
      </trkpt>
      <trkpt lat="45.95756" lon="4.40556">
        <ele>704.8</ele>
        <time>2021-12-21T10:44:24Z</time>
      </trkpt>
      <trkpt lat="45.95744" lon="4.40496">
        <ele>710</ele>
        <time>2021-12-21T10:44:28Z</time>
      </trkpt>
      <trkpt lat="45.95744" lon="4.40447">
        <ele>712.5</ele>
        <time>2021-12-21T10:44:37Z</time>
      </trkpt>
      <trkpt lat="45.95758" lon="4.40402">
        <ele>713.8</ele>
        <time>2021-12-21T10:44:55Z</time>
      </trkpt>
      <trkpt lat="45.95772" lon="4.40381">
        <ele>714.7</ele>
        <time>2021-12-21T10:44:59Z</time>
      </trkpt>
      <trkpt lat="45.95799" lon="4.40351">
        <ele>719</ele>
        <time>2021-12-21T10:45:03Z</time>
      </trkpt>
      <trkpt lat="45.95849" lon="4.40319">
        <ele>726.6</ele>
        <time>2021-12-21T10:45:14Z</time>
      </trkpt>
      <trkpt lat="45.95915" lon="4.40289">
        <ele>736.1</ele>
        <time>2021-12-21T10:45:32Z</time>
      </trkpt>
      <trkpt lat="45.95988" lon="4.40224">
        <ele>743.3</ele>
        <time>2021-12-21T10:45:46Z</time>
      </trkpt>
      <trkpt lat="45.96029" lon="4.40129">
        <ele>743.1</ele>
        <time>2021-12-21T10:45:57Z</time>
      </trkpt>
      <trkpt lat="45.96035" lon="4.40022">
        <ele>749.2</ele>
        <time>2021-12-21T10:46:08Z</time>
      </trkpt>
      <trkpt lat="45.95986" lon="4.39824">
        <ele>766.3</ele>
        <time>2021-12-21T10:46:14Z</time>
      </trkpt>
      <trkpt lat="45.95997" lon="4.39751">
        <ele>764</ele>
        <time>2021-12-21T10:46:29Z</time>
      </trkpt>
      <trkpt lat="45.95932" lon="4.3963">
        <ele>760.2</ele>
        <time>2021-12-21T10:46:43Z</time>
      </trkpt>
      <trkpt lat="45.95874" lon="4.39544">
        <ele>755.9</ele>
        <time>2021-12-21T10:46:56Z</time>
      </trkpt>
      <trkpt lat="45.95786" lon="4.3943">
        <ele>755.3</ele>
        <time>2021-12-21T10:47:14Z</time>
      </trkpt>
      <trkpt lat="45.95786" lon="4.3943">
        <ele>755.3</ele>
        <time>2021-12-21T10:47:33Z</time>
      </trkpt>
      <trkpt lat="45.95766" lon="4.39428">
        <ele>757.6</ele>
        <time>2021-12-21T10:47:42Z</time>
      </trkpt>
      <trkpt lat="45.95757" lon="4.39422">
        <ele>758.8</ele>
        <time>2021-12-21T10:47:57Z</time>
      </trkpt>
      <trkpt lat="45.95752" lon="4.39414">
        <ele>759.8</ele>
        <time>2021-12-21T10:48:12Z</time>
      </trkpt>
      <trkpt lat="45.95745" lon="4.39383">
        <ele>760.1</ele>
        <time>2021-12-21T10:48:16Z</time>
      </trkpt>
      <trkpt lat="45.95729" lon="4.3937">
        <ele>761.5</ele>
        <time>2021-12-21T10:48:26Z</time>
      </trkpt>
      <trkpt lat="45.95719" lon="4.39367">
        <ele>762.6</ele>
        <time>2021-12-21T10:48:30Z</time>
      </trkpt>
      <trkpt lat="45.95714" lon="4.39352">
        <ele>765.2</ele>
        <time>2021-12-21T10:48:43Z</time>
      </trkpt>
      <trkpt lat="45.95698" lon="4.39337">
        <ele>770.6</ele>
        <time>2021-12-21T10:48:49Z</time>
      </trkpt>
      <trkpt lat="45.95685" lon="4.3932">
        <ele>776.9</ele>
        <time>2021-12-21T10:48:56Z</time>
      </trkpt>
      <trkpt lat="45.95669" lon="4.39298">
        <ele>785</ele>
        <time>2021-12-21T10:49:10Z</time>
      </trkpt>
      <trkpt lat="45.95647" lon="4.39287">
        <ele>790.2</ele>
        <time>2021-12-21T10:49:22Z</time>
      </trkpt>
      <trkpt lat="45.95626" lon="4.39272">
        <ele>792.5</ele>
        <time>2021-12-21T10:49:41Z</time>
      </trkpt>
      <trkpt lat="45.95605" lon="4.39247">
        <ele>794</ele>
        <time>2021-12-21T10:49:49Z</time>
      </trkpt>
      <trkpt lat="45.95574" lon="4.39233">
        <ele>795</ele>
        <time>2021-12-21T10:50:01Z</time>
      </trkpt>
      <trkpt lat="45.9551" lon="4.39188">
        <ele>798.4</ele>
        <time>2021-12-21T10:50:19Z</time>
      </trkpt>
      <trkpt lat="45.95472" lon="4.39164">
        <ele>799.2</ele>
        <time>2021-12-21T10:50:32Z</time>
      </trkpt>
      <trkpt lat="45.95455" lon="4.39133">
        <ele>800.8</ele>
        <time>2021-12-21T10:50:41Z</time>
      </trkpt>
      <trkpt lat="45.95426" lon="4.39095">
        <ele>800.9</ele>
        <time>2021-12-21T10:50:59Z</time>
      </trkpt>
      <trkpt lat="45.954" lon="4.3907">
        <ele>798.9</ele>
        <time>2021-12-21T10:51:14Z</time>
      </trkpt>
      <trkpt lat="45.95381" lon="4.39054">
        <ele>797.2</ele>
        <time>2021-12-21T10:51:20Z</time>
      </trkpt>
      <trkpt lat="45.95341" lon="4.39024">
        <ele>795.4</ele>
        <time>2021-12-21T10:51:34Z</time>
      </trkpt>
      <trkpt lat="45.95318" lon="4.39">
        <ele>795.5</ele>
        <time>2021-12-21T10:51:52Z</time>
      </trkpt>
      <trkpt lat="45.95295" lon="4.38993">
        <ele>794.9</ele>
        <time>2021-12-21T10:51:56Z</time>
      </trkpt>
      <trkpt lat="45.9529" lon="4.38993">
        <ele>794.7</ele>
        <time>2021-12-21T10:52:13Z</time>
      </trkpt>
      <trkpt lat="45.95295" lon="4.38993">
        <ele>794.9</ele>
        <time>2021-12-21T10:52:30Z</time>
      </trkpt>
      <trkpt lat="45.95322" lon="4.38986">
        <ele>795.8</ele>
        <time>2021-12-21T10:52:33Z</time>
      </trkpt>
      <trkpt lat="45.95339" lon="4.38977">
        <ele>796.2</ele>
        <time>2021-12-21T10:52:51Z</time>
      </trkpt>
      <trkpt lat="45.95387" lon="4.38946">
        <ele>796.1</ele>
        <time>2021-12-21T10:52:59Z</time>
      </trkpt>
      <trkpt lat="45.95417" lon="4.38932">
        <ele>794.1</ele>
        <time>2021-12-21T10:53:05Z</time>
      </trkpt>
      <trkpt lat="45.95427" lon="4.38929">
        <ele>793.2</ele>
        <time>2021-12-21T10:53:20Z</time>
      </trkpt>
      <trkpt lat="45.95448" lon="4.38929">
        <ele>791.4</ele>
        <time>2021-12-21T10:53:34Z</time>
      </trkpt>
      <trkpt lat="45.95479" lon="4.38935">
        <ele>788.2</ele>
        <time>2021-12-21T10:53:44Z</time>
      </trkpt>
      <trkpt lat="45.95515" lon="4.38939">
        <ele>785.3</ele>
        <time>2021-12-21T10:53:55Z</time>
      </trkpt>
      <trkpt lat="45.95539" lon="4.38937">
        <ele>783.4</ele>
        <time>2021-12-21T10:54:14Z</time>
      </trkpt>
      <trkpt lat="45.95562" lon="4.38926">
        <ele>780.8</ele>
        <time>2021-12-21T10:54:34Z</time>
      </trkpt>
      <trkpt lat="45.95618" lon="4.38887">
        <ele>773.4</ele>
        <time>2021-12-21T10:54:38Z</time>
      </trkpt>
      <trkpt lat="45.95646" lon="4.38863">
        <ele>769.6</ele>
        <time>2021-12-21T10:54:56Z</time>
      </trkpt>
      <trkpt lat="45.9568" lon="4.38828">
        <ele>767.3</ele>
        <time>2021-12-21T10:55:11Z</time>
      </trkpt>
      <trkpt lat="45.95743" lon="4.38795">
        <ele>766.9</ele>
        <time>2021-12-21T10:55:22Z</time>
      </trkpt>
      <trkpt lat="45.9576" lon="4.3878">
        <ele>766.6</ele>
        <time>2021-12-21T10:55:29Z</time>
      </trkpt>
      <trkpt lat="45.9577" lon="4.38766">
        <ele>766.6</ele>
        <time>2021-12-21T10:55:40Z</time>
      </trkpt>
      <trkpt lat="45.9578" lon="4.38756">
        <ele>766.7</ele>
        <time>2021-12-21T10:55:59Z</time>
      </trkpt>
      <trkpt lat="45.95801" lon="4.38733">
        <ele>766.7</ele>
        <time>2021-12-21T10:56:03Z</time>
      </trkpt>
      <trkpt lat="45.95832" lon="4.38703">
        <ele>767.4</ele>
        <time>2021-12-21T10:56:05Z</time>
      </trkpt>
      <trkpt lat="45.95915" lon="4.38642">
        <ele>767.5</ele>
        <time>2021-12-21T10:56:10Z</time>
      </trkpt>
      <trkpt lat="45.95968" lon="4.38629">
        <ele>769.1</ele>
        <time>2021-12-21T10:56:24Z</time>
      </trkpt>
      <trkpt lat="45.96003" lon="4.38624">
        <ele>770.2</ele>
        <time>2021-12-21T10:56:36Z</time>
      </trkpt>
      <trkpt lat="45.96034" lon="4.38622">
        <ele>770.8</ele>
        <time>2021-12-21T10:56:38Z</time>
      </trkpt>
      <trkpt lat="45.96044" lon="4.38624">
        <ele>770.8</ele>
        <time>2021-12-21T10:56:44Z</time>
      </trkpt>
      <trkpt lat="45.96092" lon="4.38644">
        <ele>770.8</ele>
        <time>2021-12-21T10:56:59Z</time>
      </trkpt>
      <trkpt lat="45.96141" lon="4.38673">
        <ele>770.4</ele>
        <time>2021-12-21T10:57:19Z</time>
      </trkpt>
      <trkpt lat="45.96162" lon="4.38681">
        <ele>770.8</ele>
        <time>2021-12-21T10:57:34Z</time>
      </trkpt>
      <trkpt lat="45.96201" lon="4.3869">
        <ele>771.4</ele>
        <time>2021-12-21T10:57:38Z</time>
      </trkpt>
      <trkpt lat="45.96214" lon="4.38695">
        <ele>771.7</ele>
        <time>2021-12-21T10:57:56Z</time>
      </trkpt>
      <trkpt lat="45.96273" lon="4.38734">
        <ele>773.3</ele>
        <time>2021-12-21T10:58:00Z</time>
      </trkpt>
      <trkpt lat="45.96302" lon="4.38746">
        <ele>774.9</ele>
        <time>2021-12-21T10:58:10Z</time>
      </trkpt>
      <trkpt lat="45.96327" lon="4.38749">
        <ele>775.8</ele>
        <time>2021-12-21T10:58:14Z</time>
      </trkpt>
      <trkpt lat="45.9634" lon="4.38748">
        <ele>776</ele>
        <time>2021-12-21T10:58:16Z</time>
      </trkpt>
      <trkpt lat="45.964" lon="4.38736">
        <ele>774.6</ele>
        <time>2021-12-21T10:58:33Z</time>
      </trkpt>
      <trkpt lat="45.96433" lon="4.38737">
        <ele>773.4</ele>
        <time>2021-12-21T10:58:41Z</time>
      </trkpt>
      <trkpt lat="45.96454" lon="4.38742">
        <ele>772.6</ele>
        <time>2021-12-21T10:58:48Z</time>
      </trkpt>
      <trkpt lat="45.96465" lon="4.38747">
        <ele>772.2</ele>
        <time>2021-12-21T10:59:01Z</time>
      </trkpt>
      <trkpt lat="45.96505" lon="4.38772">
        <ele>767.7</ele>
        <time>2021-12-21T10:59:20Z</time>
      </trkpt>
      <trkpt lat="45.96523" lon="4.38786">
        <ele>766.3</ele>
        <time>2021-12-21T10:59:27Z</time>
      </trkpt>
      <trkpt lat="45.96531" lon="4.38797">
        <ele>765.7</ele>
        <time>2021-12-21T10:59:38Z</time>
      </trkpt>
      <trkpt lat="45.96576" lon="4.38885">
        <ele>761.2</ele>
        <time>2021-12-21T10:59:50Z</time>
      </trkpt>
      <trkpt lat="45.96602" lon="4.38929">
        <ele>759.5</ele>
        <time>2021-12-21T11:00:01Z</time>
      </trkpt>
      <trkpt lat="45.96617" lon="4.38965">
        <ele>758.9</ele>
        <time>2021-12-21T11:00:17Z</time>
      </trkpt>
      <trkpt lat="45.96625" lon="4.38956">
        <ele>758.7</ele>
        <time>2021-12-21T11:00:21Z</time>
      </trkpt>
      <trkpt lat="45.96617" lon="4.38965">
        <ele>758.9</ele>
        <time>2021-12-21T11:00:38Z</time>
      </trkpt>
      <trkpt lat="45.96628" lon="4.39005">
        <ele>759.1</ele>
        <time>2021-12-21T11:00:50Z</time>
      </trkpt>
      <trkpt lat="45.96641" lon="4.39038">
        <ele>760.1</ele>
        <time>2021-12-21T11:01:01Z</time>
      </trkpt>
      <trkpt lat="45.96658" lon="4.39073">
        <ele>762.4</ele>
        <time>2021-12-21T11:01:09Z</time>
      </trkpt>
      <trkpt lat="45.96662" lon="4.39085">
        <ele>763.5</ele>
        <time>2021-12-21T11:01:17Z</time>
      </trkpt>
      <trkpt lat="45.96674" lon="4.39139">
        <ele>765.3</ele>
        <time>2021-12-21T11:01:30Z</time>
      </trkpt>
      <trkpt lat="45.96694" lon="4.39213">
        <ele>766</ele>
        <time>2021-12-21T11:01:38Z</time>
      </trkpt>
      <trkpt lat="45.96722" lon="4.39282">
        <ele>766.1</ele>
        <time>2021-12-21T11:01:52Z</time>
      </trkpt>
      <trkpt lat="45.96759" lon="4.39363">
        <ele>767.5</ele>
        <time>2021-12-21T11:02:04Z</time>
      </trkpt>
      <trkpt lat="45.96771" lon="4.39385">
        <ele>766.6</ele>
        <time>2021-12-21T11:02:19Z</time>
      </trkpt>
      <trkpt lat="45.96788" lon="4.39404">
        <ele>765.1</ele>
        <time>2021-12-21T11:02:34Z</time>
      </trkpt>
      <trkpt lat="45.96823" lon="4.39438">
        <ele>763.5</ele>
        <time>2021-12-21T11:02:36Z</time>
      </trkpt>
      <trkpt lat="45.96836" lon="4.39454">
        <ele>763.3</ele>
        <time>2021-12-21T11:02:55Z</time>
      </trkpt>
      <trkpt lat="45.96856" lon="4.39474">
        <ele>762.7</ele>
        <time>2021-12-21T11:03:11Z</time>
      </trkpt>
      <trkpt lat="45.96867" lon="4.39482">
        <ele>762</ele>
        <time>2021-12-21T11:03:27Z</time>
      </trkpt>
      <trkpt lat="45.96925" lon="4.395">
        <ele>759.7</ele>
        <time>2021-12-21T11:03:30Z</time>
      </trkpt>
      <trkpt lat="45.96951" lon="4.3951">
        <ele>759.2</ele>
        <time>2021-12-21T11:03:35Z</time>
      </trkpt>
      <trkpt lat="45.96962" lon="4.39517">
        <ele>758.5</ele>
        <time>2021-12-21T11:03:40Z</time>
      </trkpt>
      <trkpt lat="45.96977" lon="4.3953">
        <ele>757.1</ele>
        <time>2021-12-21T11:03:43Z</time>
      </trkpt>
      <trkpt lat="45.96995" lon="4.3955">
        <ele>753.9</ele>
        <time>2021-12-21T11:03:55Z</time>
      </trkpt>
      <trkpt lat="45.97007" lon="4.39559">
        <ele>751.9</ele>
        <time>2021-12-21T11:04:07Z</time>
      </trkpt>
      <trkpt lat="45.97039" lon="4.39579">
        <ele>746.8</ele>
        <time>2021-12-21T11:04:24Z</time>
      </trkpt>
      <trkpt lat="45.97105" lon="4.39625">
        <ele>738.6</ele>
        <time>2021-12-21T11:04:34Z</time>
      </trkpt>
      <trkpt lat="45.97115" lon="4.39628">
        <ele>737.5</ele>
        <time>2021-12-21T11:04:38Z</time>
      </trkpt>
      <trkpt lat="45.97177" lon="4.39628">
        <ele>732.6</ele>
        <time>2021-12-21T11:04:47Z</time>
      </trkpt>
      <trkpt lat="45.97211" lon="4.3961">
        <ele>731.4</ele>
        <time>2021-12-21T11:05:07Z</time>
      </trkpt>
      <trkpt lat="45.9722" lon="4.39606">
        <ele>730.9</ele>
        <time>2021-12-21T11:05:10Z</time>
      </trkpt>
      <trkpt lat="45.97231" lon="4.39605">
        <ele>730.2</ele>
        <time>2021-12-21T11:05:24Z</time>
      </trkpt>
      <trkpt lat="45.97266" lon="4.39612">
        <ele>727.9</ele>
        <time>2021-12-21T11:05:29Z</time>
      </trkpt>
      <trkpt lat="45.97278" lon="4.3962">
        <ele>727</ele>
        <time>2021-12-21T11:05:43Z</time>
      </trkpt>
      <trkpt lat="45.97276" lon="4.39615">
        <ele>727.1</ele>
        <time>2021-12-21T11:05:58Z</time>
      </trkpt>
      <trkpt lat="45.97278" lon="4.3962">
        <ele>727</ele>
        <time>2021-12-21T11:06:12Z</time>
      </trkpt>
      <trkpt lat="45.97306" lon="4.39641">
        <ele>726</ele>
        <time>2021-12-21T11:06:32Z</time>
      </trkpt>
      <trkpt lat="45.9733" lon="4.39663">
        <ele>726.2</ele>
        <time>2021-12-21T11:06:42Z</time>
      </trkpt>
      <trkpt lat="45.97411" lon="4.39718">
        <ele>729.6</ele>
        <time>2021-12-21T11:06:53Z</time>
      </trkpt>
      <trkpt lat="45.97451" lon="4.39756">
        <ele>731.4</ele>
        <time>2021-12-21T11:06:57Z</time>
      </trkpt>
      <trkpt lat="45.97484" lon="4.39799">
        <ele>733.6</ele>
        <time>2021-12-21T11:07:03Z</time>
      </trkpt>
      <trkpt lat="45.97509" lon="4.39809">
        <ele>736.4</ele>
        <time>2021-12-21T11:07:08Z</time>
      </trkpt>
      <trkpt lat="45.9754" lon="4.39819">
        <ele>738.7</ele>
        <time>2021-12-21T11:07:14Z</time>
      </trkpt>
      <trkpt lat="45.97549" lon="4.39826">
        <ele>739.3</ele>
        <time>2021-12-21T11:07:25Z</time>
      </trkpt>
      <trkpt lat="45.97558" lon="4.39837">
        <ele>740</ele>
        <time>2021-12-21T11:07:35Z</time>
      </trkpt>
      <trkpt lat="45.9757" lon="4.39859">
        <ele>740.5</ele>
        <time>2021-12-21T11:07:54Z</time>
      </trkpt>
      <trkpt lat="45.97582" lon="4.39869">
        <ele>740.6</ele>
        <time>2021-12-21T11:08:01Z</time>
      </trkpt>
      <trkpt lat="45.97639" lon="4.39901">
        <ele>742</ele>
        <time>2021-12-21T11:08:03Z</time>
      </trkpt>
      <trkpt lat="45.97654" lon="4.39916">
        <ele>742</ele>
        <time>2021-12-21T11:08:12Z</time>
      </trkpt>
      <trkpt lat="45.97726" lon="4.39974">
        <ele>741.6</ele>
        <time>2021-12-21T11:08:28Z</time>
      </trkpt>
      <trkpt lat="45.9776" lon="4.39995">
        <ele>739.6</ele>
        <time>2021-12-21T11:08:42Z</time>
      </trkpt>
      <trkpt lat="45.97777" lon="4.40004">
        <ele>738.2</ele>
        <time>2021-12-21T11:08:45Z</time>
      </trkpt>
      <trkpt lat="45.97864" lon="4.40038">
        <ele>732.6</ele>
        <time>2021-12-21T11:08:47Z</time>
      </trkpt>
      <trkpt lat="45.97871" lon="4.40042">
        <ele>732.5</ele>
        <time>2021-12-21T11:09:06Z</time>
      </trkpt>
      <trkpt lat="45.9787" lon="4.40086">
        <ele>734.8</ele>
        <time>2021-12-21T11:09:18Z</time>
      </trkpt>
      <trkpt lat="45.97861" lon="4.40123">
        <ele>736.4</ele>
        <time>2021-12-21T11:09:29Z</time>
      </trkpt>
      <trkpt lat="45.97822" lon="4.40209">
        <ele>739.9</ele>
        <time>2021-12-21T11:09:45Z</time>
      </trkpt>
      <trkpt lat="45.97814" lon="4.40221">
        <ele>740.5</ele>
        <time>2021-12-21T11:10:01Z</time>
      </trkpt>
      <trkpt lat="45.97791" lon="4.40258">
        <ele>743.4</ele>
        <time>2021-12-21T11:10:10Z</time>
      </trkpt>
      <trkpt lat="45.97751" lon="4.40332">
        <ele>746.1</ele>
        <time>2021-12-21T11:10:26Z</time>
      </trkpt>
      <trkpt lat="45.97733" lon="4.40362">
        <ele>747.2</ele>
        <time>2021-12-21T11:10:43Z</time>
      </trkpt>
      <trkpt lat="45.977" lon="4.40407">
        <ele>748</ele>
        <time>2021-12-21T11:10:51Z</time>
      </trkpt>
      <trkpt lat="45.97684" lon="4.40435">
        <ele>749.1</ele>
        <time>2021-12-21T11:11:02Z</time>
      </trkpt>
      <trkpt lat="45.97671" lon="4.40452">
        <ele>749.6</ele>
        <time>2021-12-21T11:11:16Z</time>
      </trkpt>
      <trkpt lat="45.97658" lon="4.40483">
        <ele>751.6</ele>
        <time>2021-12-21T11:11:18Z</time>
      </trkpt>
      <trkpt lat="45.97586" lon="4.40615">
        <ele>759.6</ele>
        <time>2021-12-21T11:11:31Z</time>
      </trkpt>
      <trkpt lat="45.97578" lon="4.40634">
        <ele>761</ele>
        <time>2021-12-21T11:11:50Z</time>
      </trkpt>
      <trkpt lat="45.97572" lon="4.40664">
        <ele>762.9</ele>
        <time>2021-12-21T11:12:10Z</time>
      </trkpt>
      <trkpt lat="45.97568" lon="4.40697">
        <ele>763.8</ele>
        <time>2021-12-21T11:12:24Z</time>
      </trkpt>
      <trkpt lat="45.97567" lon="4.40727">
        <ele>764.6</ele>
        <time>2021-12-21T11:12:27Z</time>
      </trkpt>
      <trkpt lat="45.9757" lon="4.40791">
        <ele>764.6</ele>
        <time>2021-12-21T11:12:40Z</time>
      </trkpt>
      <trkpt lat="45.97583" lon="4.40853">
        <ele>764.4</ele>
        <time>2021-12-21T11:12:47Z</time>
      </trkpt>
      <trkpt lat="45.97586" lon="4.40859">
        <ele>765</ele>
        <time>2021-12-21T11:13:05Z</time>
      </trkpt>
      <trkpt lat="45.97594" lon="4.40874">
        <ele>767.9</ele>
        <time>2021-12-21T11:13:08Z</time>
      </trkpt>
      <trkpt lat="45.97607" lon="4.40908">
        <ele>772.7</ele>
        <time>2021-12-21T11:13:13Z</time>
      </trkpt>
      <trkpt lat="45.97618" lon="4.40995">
        <ele>780.1</ele>
        <time>2021-12-21T11:13:31Z</time>
      </trkpt>
      <trkpt lat="45.97669" lon="4.41133">
        <ele>793.3</ele>
        <time>2021-12-21T11:13:45Z</time>
      </trkpt>
      <trkpt lat="45.97707" lon="4.41223">
        <ele>797.7</ele>
        <time>2021-12-21T11:13:50Z</time>
      </trkpt>
      <trkpt lat="45.97728" lon="4.41257">
        <ele>798</ele>
        <time>2021-12-21T11:13:56Z</time>
      </trkpt>
      <trkpt lat="45.9776" lon="4.41299">
        <ele>797</ele>
        <time>2021-12-21T11:14:13Z</time>
      </trkpt>
      <trkpt lat="45.978" lon="4.41338">
        <ele>797.1</ele>
        <time>2021-12-21T11:14:20Z</time>
      </trkpt>
      <trkpt lat="45.97836" lon="4.41362">
        <ele>796</ele>
        <time>2021-12-21T11:14:25Z</time>
      </trkpt>
      <trkpt lat="45.97908" lon="4.41389">
        <ele>796</ele>
        <time>2021-12-21T11:14:45Z</time>
      </trkpt>
      <trkpt lat="45.97943" lon="4.41406">
        <ele>796.4</ele>
        <time>2021-12-21T11:14:51Z</time>
      </trkpt>
      <trkpt lat="45.9797" lon="4.41429">
        <ele>797.3</ele>
        <time>2021-12-21T11:14:57Z</time>
      </trkpt>
      <trkpt lat="45.97994" lon="4.41462">
        <ele>798.7</ele>
        <time>2021-12-21T11:15:14Z</time>
      </trkpt>
      <trkpt lat="45.98012" lon="4.41512">
        <ele>799.9</ele>
        <time>2021-12-21T11:15:16Z</time>
      </trkpt>
      <trkpt lat="45.98027" lon="4.41564">
        <ele>801.6</ele>
        <time>2021-12-21T11:15:25Z</time>
      </trkpt>
      <trkpt lat="45.98036" lon="4.41614">
        <ele>802.6</ele>
        <time>2021-12-21T11:15:43Z</time>
      </trkpt>
      <trkpt lat="45.98037" lon="4.41656">
        <ele>802.3</ele>
        <time>2021-12-21T11:16:00Z</time>
      </trkpt>
      <trkpt lat="45.98036" lon="4.41682">
        <ele>800.6</ele>
        <time>2021-12-21T11:16:07Z</time>
      </trkpt>
      <trkpt lat="45.98041" lon="4.41656">
        <ele>803.3</ele>
        <time>2021-12-21T11:16:10Z</time>
      </trkpt>
      <trkpt lat="45.98036" lon="4.41682">
        <ele>800.6</ele>
        <time>2021-12-21T11:16:25Z</time>
      </trkpt>
      <trkpt lat="45.98037" lon="4.41719">
        <ele>798.7</ele>
        <time>2021-12-21T11:16:34Z</time>
      </trkpt>
      <trkpt lat="45.9805" lon="4.41826">
        <ele>793.1</ele>
        <time>2021-12-21T11:16:42Z</time>
      </trkpt>
      <trkpt lat="45.98058" lon="4.41844">
        <ele>791.5</ele>
        <time>2021-12-21T11:16:54Z</time>
      </trkpt>
      <trkpt lat="45.98122" lon="4.41895">
        <ele>785.6</ele>
        <time>2021-12-21T11:17:09Z</time>
      </trkpt>
      <trkpt lat="45.9813" lon="4.41907">
        <ele>784.7</ele>
        <time>2021-12-21T11:17:22Z</time>
      </trkpt>
      <trkpt lat="45.9815" lon="4.41991">
        <ele>783</ele>
        <time>2021-12-21T11:17:41Z</time>
      </trkpt>
      <trkpt lat="45.98169" lon="4.42057">
        <ele>784.3</ele>
        <time>2021-12-21T11:17:44Z</time>
      </trkpt>
      <trkpt lat="45.98201" lon="4.4211">
        <ele>786</ele>
        <time>2021-12-21T11:17:54Z</time>
      </trkpt>
      <trkpt lat="45.98233" lon="4.42154">
        <ele>784.9</ele>
        <time>2021-12-21T11:18:11Z</time>
      </trkpt>
      <trkpt lat="45.98333" lon="4.42213">
        <ele>788.3</ele>
        <time>2021-12-21T11:18:16Z</time>
      </trkpt>
      <trkpt lat="45.98482" lon="4.42326">
        <ele>795.9</ele>
        <time>2021-12-21T11:18:22Z</time>
      </trkpt>
      <trkpt lat="45.98487" lon="4.42327">
        <ele>796.4</ele>
        <time>2021-12-21T11:18:28Z</time>
      </trkpt>
      <trkpt lat="45.98528" lon="4.42332">
        <ele>800.2</ele>
        <time>2021-12-21T11:18:45Z</time>
      </trkpt>
      <trkpt lat="45.986" lon="4.42308">
        <ele>806.1</ele>
        <time>2021-12-21T11:18:58Z</time>
      </trkpt>
      <trkpt lat="45.98657" lon="4.42231">
        <ele>811.6</ele>
        <time>2021-12-21T11:19:18Z</time>
      </trkpt>
      <trkpt lat="45.98713" lon="4.42194">
        <ele>815.1</ele>
        <time>2021-12-21T11:19:34Z</time>
      </trkpt>
      <trkpt lat="45.98779" lon="4.42196">
        <ele>816.9</ele>
        <time>2021-12-21T11:19:44Z</time>
      </trkpt>
      <trkpt lat="45.98834" lon="4.42237">
        <ele>817.5</ele>
        <time>2021-12-21T11:20:03Z</time>
      </trkpt>
      <trkpt lat="45.98929" lon="4.42374">
        <ele>818.8</ele>
        <time>2021-12-21T11:20:17Z</time>
      </trkpt>
      <trkpt lat="45.99012" lon="4.42441">
        <ele>826.6</ele>
        <time>2021-12-21T11:20:34Z</time>
      </trkpt>
      <trkpt lat="45.99113" lon="4.42484">
        <ele>827.9</ele>
        <time>2021-12-21T11:20:36Z</time>
      </trkpt>
      <trkpt lat="45.99118" lon="4.42486">
        <ele>828.1</ele>
        <time>2021-12-21T11:20:47Z</time>
      </trkpt>
      <trkpt lat="45.99091" lon="4.42513">
        <ele>824.3</ele>
        <time>2021-12-21T11:21:04Z</time>
      </trkpt>
      <trkpt lat="45.99063" lon="4.42553">
        <ele>819.5</ele>
        <time>2021-12-21T11:21:06Z</time>
      </trkpt>
      <trkpt lat="45.9903" lon="4.42614">
        <ele>811.9</ele>
        <time>2021-12-21T11:21:12Z</time>
      </trkpt>
      <trkpt lat="45.9901" lon="4.42668">
        <ele>806.3</ele>
        <time>2021-12-21T11:21:28Z</time>
      </trkpt>
      <trkpt lat="45.99001" lon="4.42712">
        <ele>802.8</ele>
        <time>2021-12-21T11:21:37Z</time>
      </trkpt>
      <trkpt lat="45.9899" lon="4.42755">
        <ele>798.8</ele>
        <time>2021-12-21T11:21:45Z</time>
      </trkpt>
      <trkpt lat="45.98975" lon="4.42796">
        <ele>794.7</ele>
        <time>2021-12-21T11:22:05Z</time>
      </trkpt>
      <trkpt lat="45.98949" lon="4.42849">
        <ele>790.4</ele>
        <time>2021-12-21T11:22:12Z</time>
      </trkpt>
      <trkpt lat="45.98922" lon="4.42917">
        <ele>785</ele>
        <time>2021-12-21T11:22:25Z</time>
      </trkpt>
      <trkpt lat="45.9891" lon="4.42952">
        <ele>781</ele>
        <time>2021-12-21T11:22:37Z</time>
      </trkpt>
      <trkpt lat="45.98904" lon="4.42987">
        <ele>777.6</ele>
        <time>2021-12-21T11:22:57Z</time>
      </trkpt>
      <trkpt lat="45.98889" lon="4.43035">
        <ele>774.7</ele>
        <time>2021-12-21T11:23:08Z</time>
      </trkpt>
      <trkpt lat="45.98879" lon="4.43056">
        <ele>773.6</ele>
        <time>2021-12-21T11:23:18Z</time>
      </trkpt>
      <trkpt lat="45.98868" lon="4.43066">
        <ele>773.4</ele>
        <time>2021-12-21T11:23:34Z</time>
      </trkpt>
      <trkpt lat="45.98835" lon="4.43077">
        <ele>769.2</ele>
        <time>2021-12-21T11:23:49Z</time>
      </trkpt>
      <trkpt lat="45.98809" lon="4.4309">
        <ele>764.9</ele>
        <time>2021-12-21T11:24:00Z</time>
      </trkpt>
      <trkpt lat="45.98783" lon="4.431">
        <ele>759.8</ele>
        <time>2021-12-21T11:24:10Z</time>
      </trkpt>
      <trkpt lat="45.98741" lon="4.4311">
        <ele>751</ele>
        <time>2021-12-21T11:24:15Z</time>
      </trkpt>
      <trkpt lat="45.98743" lon="4.43101">
        <ele>750.7</ele>
        <time>2021-12-21T11:24:24Z</time>
      </trkpt>
      <trkpt lat="45.98741" lon="4.4311">
        <ele>751</ele>
        <time>2021-12-21T11:24:26Z</time>
      </trkpt>
      <trkpt lat="45.98709" lon="4.43148">
        <ele>748.1</ele>
        <time>2021-12-21T11:24:44Z</time>
      </trkpt>
      <trkpt lat="45.98692" lon="4.43162">
        <ele>746</ele>
        <time>2021-12-21T11:24:59Z</time>
      </trkpt>
      <trkpt lat="45.98673" lon="4.43191">
        <ele>745.2</ele>
        <time>2021-12-21T11:25:05Z</time>
      </trkpt>
      <trkpt lat="45.98659" lon="4.43217">
        <ele>745.6</ele>
        <time>2021-12-21T11:25:09Z</time>
      </trkpt>
      <trkpt lat="45.9859" lon="4.43334">
        <ele>748.5</ele>
        <time>2021-12-21T11:25:18Z</time>
      </trkpt>
      <trkpt lat="45.98585" lon="4.43345">
        <ele>748.7</ele>
        <time>2021-12-21T11:25:35Z</time>
      </trkpt>
      <trkpt lat="45.98562" lon="4.43433">
        <ele>748.1</ele>
        <time>2021-12-21T11:25:50Z</time>
      </trkpt>
      <trkpt lat="45.98542" lon="4.43533">
        <ele>746.4</ele>
        <time>2021-12-21T11:25:56Z</time>
      </trkpt>
      <trkpt lat="45.98536" lon="4.43569">
        <ele>743.6</ele>
        <time>2021-12-21T11:26:04Z</time>
      </trkpt>
      <trkpt lat="45.98533" lon="4.43638">
        <ele>739.1</ele>
        <time>2021-12-21T11:26:22Z</time>
      </trkpt>
      <trkpt lat="45.98514" lon="4.43745">
        <ele>732.5</ele>
        <time>2021-12-21T11:26:41Z</time>
      </trkpt>
      <trkpt lat="45.985" lon="4.43805">
        <ele>729</ele>
        <time>2021-12-21T11:26:57Z</time>
      </trkpt>
      <trkpt lat="45.98493" lon="4.43828">
        <ele>727.8</ele>
        <time>2021-12-21T11:27:03Z</time>
      </trkpt>
      <trkpt lat="45.98486" lon="4.43841">
        <ele>727.5</ele>
        <time>2021-12-21T11:27:23Z</time>
      </trkpt>
      <trkpt lat="45.98492" lon="4.43848">
        <ele>727.5</ele>
        <time>2021-12-21T11:27:40Z</time>
      </trkpt>
      <trkpt lat="45.9849" lon="4.43879">
        <ele>727.2</ele>
        <time>2021-12-21T11:27:50Z</time>
      </trkpt>
      <trkpt lat="45.98492" lon="4.43848">
        <ele>727.5</ele>
        <time>2021-12-21T11:27:54Z</time>
      </trkpt>
      <trkpt lat="45.98486" lon="4.43841">
        <ele>727.5</ele>
        <time>2021-12-21T11:27:58Z</time>
      </trkpt>
      <trkpt lat="45.98468" lon="4.43876">
        <ele>728.9</ele>
        <time>2021-12-21T11:28:01Z</time>
      </trkpt>
      <trkpt lat="45.98461" lon="4.43885">
        <ele>730</ele>
        <time>2021-12-21T11:28:13Z</time>
      </trkpt>
      <trkpt lat="45.98448" lon="4.43896">
        <ele>732.5</ele>
        <time>2021-12-21T11:28:26Z</time>
      </trkpt>
      <trkpt lat="45.98417" lon="4.4391">
        <ele>738.8</ele>
        <time>2021-12-21T11:28:29Z</time>
      </trkpt>
      <trkpt lat="45.984" lon="4.43915">
        <ele>741.5</ele>
        <time>2021-12-21T11:28:34Z</time>
      </trkpt>
      <trkpt lat="45.98365" lon="4.4392">
        <ele>746.2</ele>
        <time>2021-12-21T11:28:46Z</time>
      </trkpt>
      <trkpt lat="45.98339" lon="4.4392">
        <ele>749.9</ele>
        <time>2021-12-21T11:28:54Z</time>
      </trkpt>
      <trkpt lat="45.98324" lon="4.43933">
        <ele>754.5</ele>
        <time>2021-12-21T11:29:04Z</time>
      </trkpt>
      <trkpt lat="45.98291" lon="4.43946">
        <ele>761.8</ele>
        <time>2021-12-21T11:29:18Z</time>
      </trkpt>
      <trkpt lat="45.98236" lon="4.43999">
        <ele>773.3</ele>
        <time>2021-12-21T11:29:29Z</time>
      </trkpt>
      <trkpt lat="45.98229" lon="4.44011">
        <ele>774.8</ele>
        <time>2021-12-21T11:29:46Z</time>
      </trkpt>
      <trkpt lat="45.98224" lon="4.44025">
        <ele>776.7</ele>
        <time>2021-12-21T11:29:51Z</time>
      </trkpt>
      <trkpt lat="45.98223" lon="4.44037">
        <ele>778.4</ele>
        <time>2021-12-21T11:30:04Z</time>
      </trkpt>
      <trkpt lat="45.98226" lon="4.44044">
        <ele>779.5</ele>
        <time>2021-12-21T11:30:14Z</time>
      </trkpt>
      <trkpt lat="45.98252" lon="4.44066">
        <ele>783.4</ele>
        <time>2021-12-21T11:30:27Z</time>
      </trkpt>
      <trkpt lat="45.98257" lon="4.44077">
        <ele>785</ele>
        <time>2021-12-21T11:30:35Z</time>
      </trkpt>
      <trkpt lat="45.98262" lon="4.44092">
        <ele>787.3</ele>
        <time>2021-12-21T11:30:39Z</time>
      </trkpt>
      <trkpt lat="45.98267" lon="4.44197">
        <ele>797.4</ele>
        <time>2021-12-21T11:30:52Z</time>
      </trkpt>
      <trkpt lat="45.98263" lon="4.44266">
        <ele>800</ele>
        <time>2021-12-21T11:31:02Z</time>
      </trkpt>
      <trkpt lat="45.98255" lon="4.44328">
        <ele>801.3</ele>
        <time>2021-12-21T11:31:11Z</time>
      </trkpt>
      <trkpt lat="45.9826" lon="4.44418">
        <ele>804.1</ele>
        <time>2021-12-21T11:31:19Z</time>
      </trkpt>
      <trkpt lat="45.98258" lon="4.44434">
        <ele>804.5</ele>
        <time>2021-12-21T11:31:23Z</time>
      </trkpt>
      <trkpt lat="45.98249" lon="4.44479">
        <ele>805.2</ele>
        <time>2021-12-21T11:31:42Z</time>
      </trkpt>
      <trkpt lat="45.98236" lon="4.44511">
        <ele>805.4</ele>
        <time>2021-12-21T11:31:51Z</time>
      </trkpt>
      <trkpt lat="45.98214" lon="4.44549">
        <ele>805.7</ele>
        <time>2021-12-21T11:31:57Z</time>
      </trkpt>
      <trkpt lat="45.98195" lon="4.4457">
        <ele>806.5</ele>
        <time>2021-12-21T11:32:09Z</time>
      </trkpt>
      <trkpt lat="45.98166" lon="4.44585">
        <ele>809.3</ele>
        <time>2021-12-21T11:32:19Z</time>
      </trkpt>
      <trkpt lat="45.98138" lon="4.44589">
        <ele>812.9</ele>
        <time>2021-12-21T11:32:26Z</time>
      </trkpt>
      <trkpt lat="45.9811" lon="4.44599">
        <ele>817.4</ele>
        <time>2021-12-21T11:32:46Z</time>
      </trkpt>
      <trkpt lat="45.98095" lon="4.44602">
        <ele>819.2</ele>
        <time>2021-12-21T11:33:00Z</time>
      </trkpt>
      <trkpt lat="45.98027" lon="4.44608">
        <ele>824.4</ele>
        <time>2021-12-21T11:33:18Z</time>
      </trkpt>
      <trkpt lat="45.97973" lon="4.44627">
        <ele>828.8</ele>
        <time>2021-12-21T11:33:31Z</time>
      </trkpt>
      <trkpt lat="45.97936" lon="4.44645">
        <ele>831.8</ele>
        <time>2021-12-21T11:33:36Z</time>
      </trkpt>
      <trkpt lat="45.97918" lon="4.44657">
        <ele>832.9</ele>
        <time>2021-12-21T11:33:56Z</time>
      </trkpt>
      <trkpt lat="45.97888" lon="4.4467">
        <ele>834.4</ele>
        <time>2021-12-21T11:34:09Z</time>
      </trkpt>
      <trkpt lat="45.97858" lon="4.44689">
        <ele>835.9</ele>
        <time>2021-12-21T11:34:15Z</time>
      </trkpt>
      <trkpt lat="45.97843" lon="4.44696">
        <ele>836.7</ele>
        <time>2021-12-21T11:34:20Z</time>
      </trkpt>
      <trkpt lat="45.97818" lon="4.44696">
        <ele>837.5</ele>
        <time>2021-12-21T11:34:29Z</time>
      </trkpt>
      <trkpt lat="45.97803" lon="4.44699">
        <ele>838</ele>
        <time>2021-12-21T11:34:41Z</time>
      </trkpt>
      <trkpt lat="45.97745" lon="4.44723">
        <ele>843.2</ele>
        <time>2021-12-21T11:34:58Z</time>
      </trkpt>
      <trkpt lat="45.97702" lon="4.44745">
        <ele>851.5</ele>
        <time>2021-12-21T11:35:09Z</time>
      </trkpt>
      <trkpt lat="45.97643" lon="4.448">
        <ele>856.9</ele>
        <time>2021-12-21T11:35:19Z</time>
      </trkpt>
      <trkpt lat="45.97578" lon="4.44853">
        <ele>855.1</ele>
        <time>2021-12-21T11:35:38Z</time>
      </trkpt>
      <trkpt lat="45.9756" lon="4.4488">
        <ele>850.4</ele>
        <time>2021-12-21T11:35:43Z</time>
      </trkpt>
      <trkpt lat="45.97525" lon="4.4496">
        <ele>837.6</ele>
        <time>2021-12-21T11:35:57Z</time>
      </trkpt>
      <trkpt lat="45.97502" lon="4.44999">
        <ele>833.8</ele>
        <time>2021-12-21T11:36:10Z</time>
      </trkpt>
      <trkpt lat="45.97446" lon="4.45039">
        <ele>829</ele>
        <time>2021-12-21T11:36:13Z</time>
      </trkpt>
      <trkpt lat="45.97421" lon="4.4506">
        <ele>823.4</ele>
        <time>2021-12-21T11:36:15Z</time>
      </trkpt>
      <trkpt lat="45.97394" lon="4.45084">
        <ele>817.1</ele>
        <time>2021-12-21T11:36:35Z</time>
      </trkpt>
      <trkpt lat="45.97365" lon="4.45112">
        <ele>811.7</ele>
        <time>2021-12-21T11:36:38Z</time>
      </trkpt>
      <trkpt lat="45.97317" lon="4.45222">
        <ele>792.9</ele>
        <time>2021-12-21T11:36:41Z</time>
      </trkpt>
      <trkpt lat="45.97299" lon="4.45245">
        <ele>790.6</ele>
        <time>2021-12-21T11:36:55Z</time>
      </trkpt>
      <trkpt lat="45.97278" lon="4.45245">
        <ele>790.2</ele>
        <time>2021-12-21T11:37:14Z</time>
      </trkpt>
      <trkpt lat="45.97279" lon="4.4525">
        <ele>790</ele>
        <time>2021-12-21T11:37:20Z</time>
      </trkpt>
      <trkpt lat="45.9728" lon="4.45251">
        <ele>790</ele>
        <time>2021-12-21T11:37:24Z</time>
      </trkpt>
      <trkpt lat="45.97279" lon="4.4525">
        <ele>790</ele>
        <time>2021-12-21T11:37:43Z</time>
      </trkpt>
      <trkpt lat="45.97268" lon="4.45268">
        <ele>789.5</ele>
        <time>2021-12-21T11:37:58Z</time>
      </trkpt>
      <trkpt lat="45.97251" lon="4.45291">
        <ele>790</ele>
        <time>2021-12-21T11:38:11Z</time>
      </trkpt>
      <trkpt lat="45.97242" lon="4.45312">
        <ele>790.6</ele>
        <time>2021-12-21T11:38:29Z</time>
      </trkpt>
      <trkpt lat="45.97227" lon="4.45372">
        <ele>796.6</ele>
        <time>2021-12-21T11:38:46Z</time>
      </trkpt>
      <trkpt lat="45.97225" lon="4.45399">
        <ele>799.5</ele>
        <time>2021-12-21T11:38:51Z</time>
      </trkpt>
      <trkpt lat="45.97226" lon="4.45439">
        <ele>800.7</ele>
        <time>2021-12-21T11:38:59Z</time>
      </trkpt>
      <trkpt lat="45.97232" lon="4.45478">
        <ele>801.7</ele>
        <time>2021-12-21T11:39:05Z</time>
      </trkpt>
      <trkpt lat="45.97242" lon="4.45521">
        <ele>803.6</ele>
        <time>2021-12-21T11:39:10Z</time>
      </trkpt>
      <trkpt lat="45.97251" lon="4.45588">
        <ele>807</ele>
        <time>2021-12-21T11:39:22Z</time>
      </trkpt>
      <trkpt lat="45.97253" lon="4.45617">
        <ele>807.5</ele>
        <time>2021-12-21T11:39:35Z</time>
      </trkpt>
      <trkpt lat="45.97243" lon="4.45722">
        <ele>812.5</ele>
        <time>2021-12-21T11:39:49Z</time>
      </trkpt>
      <trkpt lat="45.97248" lon="4.45766">
        <ele>812.1</ele>
        <time>2021-12-21T11:39:58Z</time>
      </trkpt>
      <trkpt lat="45.97252" lon="4.45903">
        <ele>803.7</ele>
        <time>2021-12-21T11:40:18Z</time>
      </trkpt>
      <trkpt lat="45.97261" lon="4.45945">
        <ele>800.5</ele>
        <time>2021-12-21T11:40:21Z</time>
      </trkpt>
      <trkpt lat="45.97276" lon="4.45984">
        <ele>796.6</ele>
        <time>2021-12-21T11:40:41Z</time>
      </trkpt>
      <trkpt lat="45.9729" lon="4.46013">
        <ele>792.5</ele>
        <time>2021-12-21T11:41:01Z</time>
      </trkpt>
      <trkpt lat="45.97298" lon="4.46043">
        <ele>788.9</ele>
        <time>2021-12-21T11:41:12Z</time>
      </trkpt>
      <trkpt lat="45.97307" lon="4.46126">
        <ele>779.9</ele>
        <time>2021-12-21T11:41:28Z</time>
      </trkpt>
      <trkpt lat="45.97309" lon="4.46171">
        <ele>776.4</ele>
        <time>2021-12-21T11:41:36Z</time>
      </trkpt>
      <trkpt lat="45.97317" lon="4.46192">
        <ele>773.9</ele>
        <time>2021-12-21T11:41:53Z</time>
      </trkpt>
      <trkpt lat="45.97315" lon="4.46216">
        <ele>772.1</ele>
        <time>2021-12-21T11:42:07Z</time>
      </trkpt>
      <trkpt lat="45.97301" lon="4.46286">
        <ele>766.9</ele>
        <time>2021-12-21T11:42:14Z</time>
      </trkpt>
      <trkpt lat="45.97266" lon="4.46368">
        <ele>758.6</ele>
        <time>2021-12-21T11:42:21Z</time>
      </trkpt>
      <trkpt lat="45.97237" lon="4.46459">
        <ele>750.8</ele>
        <time>2021-12-21T11:42:31Z</time>
      </trkpt>
      <trkpt lat="45.97193" lon="4.46551">
        <ele>744</ele>
        <time>2021-12-21T11:42:47Z</time>
      </trkpt>
      <trkpt lat="45.97174" lon="4.46602">
        <ele>743.8</ele>
        <time>2021-12-21T11:42:57Z</time>
      </trkpt>
      <trkpt lat="45.97162" lon="4.46644">
        <ele>742.5</ele>
        <time>2021-12-21T11:43:01Z</time>
      </trkpt>
      <trkpt lat="45.97152" lon="4.46732">
        <ele>731.3</ele>
        <time>2021-12-21T11:43:11Z</time>
      </trkpt>
      <trkpt lat="45.97131" lon="4.46818">
        <ele>716.7</ele>
        <time>2021-12-21T11:43:31Z</time>
      </trkpt>
      <trkpt lat="45.97123" lon="4.46858">
        <ele>710.1</ele>
        <time>2021-12-21T11:43:45Z</time>
      </trkpt>
      <trkpt lat="45.97109" lon="4.46902">
        <ele>703</ele>
        <time>2021-12-21T11:44:03Z</time>
      </trkpt>
      <trkpt lat="45.97074" lon="4.46991">
        <ele>682.3</ele>
        <time>2021-12-21T11:44:08Z</time>
      </trkpt>
      <trkpt lat="45.97056" lon="4.47023">
        <ele>671.4</ele>
        <time>2021-12-21T11:44:14Z</time>
      </trkpt>
      <trkpt lat="45.97001" lon="4.47105">
        <ele>652.6</ele>
        <time>2021-12-21T11:44:21Z</time>
      </trkpt>
      <trkpt lat="45.96973" lon="4.47137">
        <ele>650</ele>
        <time>2021-12-21T11:44:32Z</time>
      </trkpt>
      <trkpt lat="45.96962" lon="4.47138">
        <ele>650.4</ele>
        <time>2021-12-21T11:44:51Z</time>
      </trkpt>
      <trkpt lat="45.96955" lon="4.4713">
        <ele>650.2</ele>
        <time>2021-12-21T11:45:10Z</time>
      </trkpt>
      <trkpt lat="45.96953" lon="4.47125">
        <ele>650</ele>
        <time>2021-12-21T11:45:12Z</time>
      </trkpt>
      <trkpt lat="45.96951" lon="4.47117">
        <ele>649.6</ele>
        <time>2021-12-21T11:45:16Z</time>
      </trkpt>
      <trkpt lat="45.96954" lon="4.47067">
        <ele>646.2</ele>
        <time>2021-12-21T11:45:19Z</time>
      </trkpt>
      <trkpt lat="45.96954" lon="4.47046">
        <ele>645.2</ele>
        <time>2021-12-21T11:45:22Z</time>
      </trkpt>
      <trkpt lat="45.96949" lon="4.4702">
        <ele>643.6</ele>
        <time>2021-12-21T11:45:39Z</time>
      </trkpt>
      <trkpt lat="45.96943" lon="4.47004">
        <ele>642.4</ele>
        <time>2021-12-21T11:45:54Z</time>
      </trkpt>
      <trkpt lat="45.9693" lon="4.46977">
        <ele>640.2</ele>
        <time>2021-12-21T11:46:01Z</time>
      </trkpt>
      <trkpt lat="45.96903" lon="4.46936">
        <ele>637.1</ele>
        <time>2021-12-21T11:46:11Z</time>
      </trkpt>
      <trkpt lat="45.96881" lon="4.46905">
        <ele>635.4</ele>
        <time>2021-12-21T11:46:23Z</time>
      </trkpt>
      <trkpt lat="45.96865" lon="4.46887">
        <ele>633.7</ele>
        <time>2021-12-21T11:46:25Z</time>
      </trkpt>
      <trkpt lat="45.9684" lon="4.46871">
        <ele>631.5</ele>
        <time>2021-12-21T11:46:35Z</time>
      </trkpt>
      <trkpt lat="45.96751" lon="4.46838">
        <ele>624.1</ele>
        <time>2021-12-21T11:46:45Z</time>
      </trkpt>
      <trkpt lat="45.96735" lon="4.4683">
        <ele>622.8</ele>
        <time>2021-12-21T11:46:49Z</time>
      </trkpt>
      <trkpt lat="45.96696" lon="4.46797">
        <ele>619</ele>
        <time>2021-12-21T11:47:06Z</time>
      </trkpt>
      <trkpt lat="45.96673" lon="4.46768">
        <ele>616.9</ele>
        <time>2021-12-21T11:47:25Z</time>
      </trkpt>
      <trkpt lat="45.96645" lon="4.46722">
        <ele>614</ele>
        <time>2021-12-21T11:47:35Z</time>
      </trkpt>
      <trkpt lat="45.96636" lon="4.46705">
        <ele>612.6</ele>
        <time>2021-12-21T11:47:38Z</time>
      </trkpt>
      <trkpt lat="45.96628" lon="4.46678">
        <ele>610.8</ele>
        <time>2021-12-21T11:47:47Z</time>
      </trkpt>
      <trkpt lat="45.96626" lon="4.46658">
        <ele>609.6</ele>
        <time>2021-12-21T11:48:00Z</time>
      </trkpt>
      <trkpt lat="45.96628" lon="4.46638">
        <ele>608.3</ele>
        <time>2021-12-21T11:48:17Z</time>
      </trkpt>
      <trkpt lat="45.96646" lon="4.46573">
        <ele>605.6</ele>
        <time>2021-12-21T11:48:25Z</time>
      </trkpt>
      <trkpt lat="45.96654" lon="4.46512">
        <ele>601.2</ele>
        <time>2021-12-21T11:48:31Z</time>
      </trkpt>
      <trkpt lat="45.96669" lon="4.46474">
        <ele>599.8</ele>
        <time>2021-12-21T11:48:41Z</time>
      </trkpt>
      <trkpt lat="45.96675" lon="4.46453">
        <ele>598.8</ele>
        <time>2021-12-21T11:49:01Z</time>
      </trkpt>
      <trkpt lat="45.96688" lon="4.46384">
        <ele>596</ele>
        <time>2021-12-21T11:49:17Z</time>
      </trkpt>
      <trkpt lat="45.96688" lon="4.46375">
        <ele>595.8</ele>
        <time>2021-12-21T11:49:34Z</time>
      </trkpt>
      <trkpt lat="45.96686" lon="4.46366">
        <ele>595.2</ele>
        <time>2021-12-21T11:49:48Z</time>
      </trkpt>
      <trkpt lat="45.96683" lon="4.46363">
        <ele>594.8</ele>
        <time>2021-12-21T11:49:54Z</time>
      </trkpt>
      <trkpt lat="45.96678" lon="4.4636">
        <ele>594.4</ele>
        <time>2021-12-21T11:49:57Z</time>
      </trkpt>
      <trkpt lat="45.96671" lon="4.4636">
        <ele>593.7</ele>
        <time>2021-12-21T11:50:07Z</time>
      </trkpt>
      <trkpt lat="45.96647" lon="4.46374">
        <ele>592</ele>
        <time>2021-12-21T11:50:17Z</time>
      </trkpt>
      <trkpt lat="45.96602" lon="4.46406">
        <ele>586.5</ele>
        <time>2021-12-21T11:50:31Z</time>
      </trkpt>
      <trkpt lat="45.9658" lon="4.46415">
        <ele>584</ele>
        <time>2021-12-21T11:50:34Z</time>
      </trkpt>
      <trkpt lat="45.96571" lon="4.46417">
        <ele>582.7</ele>
        <time>2021-12-21T11:50:44Z</time>
      </trkpt>
      <trkpt lat="45.96556" lon="4.46414">
        <ele>581.7</ele>
        <time>2021-12-21T11:50:59Z</time>
      </trkpt>
      <trkpt lat="45.96512" lon="4.46396">
        <ele>579.9</ele>
        <time>2021-12-21T11:51:04Z</time>
      </trkpt>
      <trkpt lat="45.96505" lon="4.46396">
        <ele>579.3</ele>
        <time>2021-12-21T11:51:11Z</time>
      </trkpt>
      <trkpt lat="45.96496" lon="4.46401">
        <ele>578.8</ele>
        <time>2021-12-21T11:51:31Z</time>
      </trkpt>
      <trkpt lat="45.96489" lon="4.46408">
        <ele>578.5</ele>
        <time>2021-12-21T11:51:33Z</time>
      </trkpt>
      <trkpt lat="45.96473" lon="4.46435">
        <ele>574.8</ele>
        <time>2021-12-21T11:51:47Z</time>
      </trkpt>
      <trkpt lat="45.96456" lon="4.46458">
        <ele>573.2</ele>
        <time>2021-12-21T11:51:58Z</time>
      </trkpt>
      <trkpt lat="45.96416" lon="4.46505">
        <ele>568.8</ele>
        <time>2021-12-21T11:52:17Z</time>
      </trkpt>
      <trkpt lat="45.96392" lon="4.46529">
        <ele>567</ele>
        <time>2021-12-21T11:52:36Z</time>
      </trkpt>
      <trkpt lat="45.96327" lon="4.46586">
        <ele>560</ele>
        <time>2021-12-21T11:52:54Z</time>
      </trkpt>
      <trkpt lat="45.96321" lon="4.46589">
        <ele>559.1</ele>
        <time>2021-12-21T11:53:13Z</time>
      </trkpt>
      <trkpt lat="45.96312" lon="4.46575">
        <ele>561.2</ele>
        <time>2021-12-21T11:53:32Z</time>
      </trkpt>
      <trkpt lat="45.96308" lon="4.46572">
        <ele>561.6</ele>
        <time>2021-12-21T11:53:35Z</time>
      </trkpt>
      <trkpt lat="45.96224" lon="4.46554">
        <ele>554.5</ele>
        <time>2021-12-21T11:53:46Z</time>
      </trkpt>
      <trkpt lat="45.96221" lon="4.46554">
        <ele>554.2</ele>
        <time>2021-12-21T11:53:51Z</time>
      </trkpt>
      <trkpt lat="45.96202" lon="4.46571">
        <ele>551.7</ele>
        <time>2021-12-21T11:53:59Z</time>
      </trkpt>
      <trkpt lat="45.96196" lon="4.46575">
        <ele>551.1</ele>
        <time>2021-12-21T11:54:14Z</time>
      </trkpt>
      <trkpt lat="45.96179" lon="4.46592">
        <ele>548.4</ele>
        <time>2021-12-21T11:54:18Z</time>
      </trkpt>
      <trkpt lat="45.96151" lon="4.46596">
        <ele>545.6</ele>
        <time>2021-12-21T11:54:37Z</time>
      </trkpt>
      <trkpt lat="45.96147" lon="4.46593">
        <ele>545.1</ele>
        <time>2021-12-21T11:54:39Z</time>
      </trkpt>
      <trkpt lat="45.96134" lon="4.46565">
        <ele>543.1</ele>
        <time>2021-12-21T11:54:49Z</time>
      </trkpt>
      <trkpt lat="45.96118" lon="4.4655">
        <ele>541.6</ele>
        <time>2021-12-21T11:54:56Z</time>
      </trkpt>
      <trkpt lat="45.96103" lon="4.46548">
        <ele>540.3</ele>
        <time>2021-12-21T11:55:13Z</time>
      </trkpt>
      <trkpt lat="45.96069" lon="4.46557">
        <ele>535.7</ele>
        <time>2021-12-21T11:55:20Z</time>
      </trkpt>
      <trkpt lat="45.96059" lon="4.46557">
        <ele>535</ele>
        <time>2021-12-21T11:55:27Z</time>
      </trkpt>
      <trkpt lat="45.96049" lon="4.46554">
        <ele>534</ele>
        <time>2021-12-21T11:55:44Z</time>
      </trkpt>
      <trkpt lat="45.96025" lon="4.46535">
        <ele>532.1</ele>
        <time>2021-12-21T11:56:01Z</time>
      </trkpt>
      <trkpt lat="45.96016" lon="4.46532">
        <ele>532.2</ele>
        <time>2021-12-21T11:56:07Z</time>
      </trkpt>
      <trkpt lat="45.96005" lon="4.46534">
        <ele>531.5</ele>
        <time>2021-12-21T11:56:18Z</time>
      </trkpt>
      <trkpt lat="45.95979" lon="4.46548">
        <ele>527.7</ele>
        <time>2021-12-21T11:56:20Z</time>
      </trkpt>
      <trkpt lat="45.95967" lon="4.46552">
        <ele>526.5</ele>
        <time>2021-12-21T11:56:28Z</time>
      </trkpt>
      <trkpt lat="45.95958" lon="4.46552">
        <ele>525.7</ele>
        <time>2021-12-21T11:56:36Z</time>
      </trkpt>
      <trkpt lat="45.95946" lon="4.46547">
        <ele>525.5</ele>
        <time>2021-12-21T11:56:38Z</time>
      </trkpt>
      <trkpt lat="45.95934" lon="4.46544">
        <ele>524.6</ele>
        <time>2021-12-21T11:56:44Z</time>
      </trkpt>
      <trkpt lat="45.95918" lon="4.46546">
        <ele>522.8</ele>
        <time>2021-12-21T11:56:58Z</time>
      </trkpt>
      <trkpt lat="45.95907" lon="4.46555">
        <ele>521.9</ele>
        <time>2021-12-21T11:57:15Z</time>
      </trkpt>
      <trkpt lat="45.95896" lon="4.4657">
        <ele>520.5</ele>
        <time>2021-12-21T11:57:18Z</time>
      </trkpt>
      <trkpt lat="45.95876" lon="4.46589">
        <ele>517.8</ele>
        <time>2021-12-21T11:57:28Z</time>
      </trkpt>
      <trkpt lat="45.95862" lon="4.46594">
        <ele>516.5</ele>
        <time>2021-12-21T11:57:30Z</time>
      </trkpt>
      <trkpt lat="45.95854" lon="4.46593">
        <ele>515</ele>
        <time>2021-12-21T11:57:37Z</time>
      </trkpt>
      <trkpt lat="45.95845" lon="4.46588">
        <ele>514.2</ele>
        <time>2021-12-21T11:57:46Z</time>
      </trkpt>
      <trkpt lat="45.95833" lon="4.46578">
        <ele>513.8</ele>
        <time>2021-12-21T11:57:54Z</time>
      </trkpt>
      <trkpt lat="45.95805" lon="4.46543">
        <ele>510.7</ele>
        <time>2021-12-21T11:58:12Z</time>
      </trkpt>
      <trkpt lat="45.95791" lon="4.46531">
        <ele>509.6</ele>
        <time>2021-12-21T11:58:22Z</time>
      </trkpt>
      <trkpt lat="45.9578" lon="4.46527">
        <ele>507.7</ele>
        <time>2021-12-21T11:58:38Z</time>
      </trkpt>
      <trkpt lat="45.95749" lon="4.46526">
        <ele>504.1</ele>
        <time>2021-12-21T11:58:46Z</time>
      </trkpt>
      <trkpt lat="45.95736" lon="4.46523">
        <ele>502.3</ele>
        <time>2021-12-21T11:58:48Z</time>
      </trkpt>
      <trkpt lat="45.95727" lon="4.46516">
        <ele>501.9</ele>
        <time>2021-12-21T11:58:55Z</time>
      </trkpt>
      <trkpt lat="45.95717" lon="4.46505">
        <ele>500.6</ele>
        <time>2021-12-21T11:59:10Z</time>
      </trkpt>
      <trkpt lat="45.95693" lon="4.46468">
        <ele>496.4</ele>
        <time>2021-12-21T11:59:30Z</time>
      </trkpt>
      <trkpt lat="45.95686" lon="4.46446">
        <ele>497.2</ele>
        <time>2021-12-21T11:59:33Z</time>
      </trkpt>
      <trkpt lat="45.95668" lon="4.46423">
        <ele>495.7</ele>
        <time>2021-12-21T11:59:37Z</time>
      </trkpt>
      <trkpt lat="45.95646" lon="4.46404">
        <ele>492.7</ele>
        <time>2021-12-21T11:59:42Z</time>
      </trkpt>
      <trkpt lat="45.95581" lon="4.46362">
        <ele>486.4</ele>
        <time>2021-12-21T11:59:51Z</time>
      </trkpt>
      <trkpt lat="45.95567" lon="4.46356">
        <ele>485.6</ele>
        <time>2021-12-21T12:00:05Z</time>
      </trkpt>
      <trkpt lat="45.95549" lon="4.46354">
        <ele>484</ele>
        <time>2021-12-21T12:00:21Z</time>
      </trkpt>
      <trkpt lat="45.95531" lon="4.46358">
        <ele>482.4</ele>
        <time>2021-12-21T12:00:23Z</time>
      </trkpt>
      <trkpt lat="45.95497" lon="4.46371">
        <ele>477.9</ele>
        <time>2021-12-21T12:00:34Z</time>
      </trkpt>
      <trkpt lat="45.95441" lon="4.46378">
        <ele>472.8</ele>
        <time>2021-12-21T12:00:50Z</time>
      </trkpt>
      <trkpt lat="45.954" lon="4.46388">
        <ele>468.8</ele>
        <time>2021-12-21T12:00:58Z</time>
      </trkpt>
      <trkpt lat="45.95395" lon="4.46386">
        <ele>468.5</ele>
        <time>2021-12-21T12:01:14Z</time>
      </trkpt>
      <trkpt lat="45.95389" lon="4.46382">
        <ele>468</ele>
        <time>2021-12-21T12:01:18Z</time>
      </trkpt>
      <trkpt lat="45.95384" lon="4.46368">
        <ele>466.2</ele>
        <time>2021-12-21T12:01:21Z</time>
      </trkpt>
      <trkpt lat="45.9538" lon="4.46349">
        <ele>464.5</ele>
        <time>2021-12-21T12:01:28Z</time>
      </trkpt>
      <trkpt lat="45.95382" lon="4.4633">
        <ele>464.2</ele>
        <time>2021-12-21T12:01:45Z</time>
      </trkpt>
      <trkpt lat="45.95389" lon="4.46305">
        <ele>462.9</ele>
        <time>2021-12-21T12:02:01Z</time>
      </trkpt>
      <trkpt lat="45.95391" lon="4.46284">
        <ele>462.1</ele>
        <time>2021-12-21T12:02:08Z</time>
      </trkpt>
      <trkpt lat="45.95389" lon="4.46273">
        <ele>460.8</ele>
        <time>2021-12-21T12:02:20Z</time>
      </trkpt>
      <trkpt lat="45.95384" lon="4.46264">
        <ele>460.4</ele>
        <time>2021-12-21T12:02:33Z</time>
      </trkpt>
      <trkpt lat="45.95377" lon="4.46259">
        <ele>460.5</ele>
        <time>2021-12-21T12:02:46Z</time>
      </trkpt>
      <trkpt lat="45.95367" lon="4.46259">
        <ele>460.7</ele>
        <time>2021-12-21T12:02:50Z</time>
      </trkpt>
      <trkpt lat="45.95354" lon="4.46273">
        <ele>459.4</ele>
        <time>2021-12-21T12:03:01Z</time>
      </trkpt>
      <trkpt lat="45.95336" lon="4.46316">
        <ele>458.1</ele>
        <time>2021-12-21T12:03:14Z</time>
      </trkpt>
      <trkpt lat="45.9532" lon="4.46376">
        <ele>457.3</ele>
        <time>2021-12-21T12:03:28Z</time>
      </trkpt>
      <trkpt lat="45.95305" lon="4.46446">
        <ele>453.1</ele>
        <time>2021-12-21T12:03:41Z</time>
      </trkpt>
      <trkpt lat="45.95286" lon="4.4647">
        <ele>453.4</ele>
        <time>2021-12-21T12:03:54Z</time>
      </trkpt>
      <trkpt lat="45.95248" lon="4.46497">
        <ele>453.1</ele>
        <time>2021-12-21T12:04:03Z</time>
      </trkpt>
      <trkpt lat="45.9523" lon="4.46513">
        <ele>451.7</ele>
        <time>2021-12-21T12:04:13Z</time>
      </trkpt>
      <trkpt lat="45.95169" lon="4.46534">
        <ele>451.9</ele>
        <time>2021-12-21T12:04:18Z</time>
      </trkpt>
      <trkpt lat="45.95062" lon="4.46603">
        <ele>448.1</ele>
        <time>2021-12-21T12:04:31Z</time>
      </trkpt>
      <trkpt lat="45.95017" lon="4.46644">
        <ele>447.4</ele>
        <time>2021-12-21T12:04:50Z</time>
      </trkpt>
      <trkpt lat="45.94963" lon="4.46702">
        <ele>446.7</ele>
        <time>2021-12-21T12:05:10Z</time>
      </trkpt>
      <trkpt lat="45.94932" lon="4.46752">
        <ele>445.4</ele>
        <time>2021-12-21T12:05:30Z</time>
      </trkpt>
      <trkpt lat="45.9489" lon="4.46805">
        <ele>441.1</ele>
        <time>2021-12-21T12:05:44Z</time>
      </trkpt>
      <trkpt lat="45.94807" lon="4.46876">
        <ele>437.8</ele>
        <time>2021-12-21T12:05:57Z</time>
      </trkpt>
      <trkpt lat="45.94733" lon="4.46953">
        <ele>434.7</ele>
        <time>2021-12-21T12:06:00Z</time>
      </trkpt>
      <trkpt lat="45.94694" lon="4.46986">
        <ele>435.2</ele>
        <time>2021-12-21T12:06:08Z</time>
      </trkpt>
      <trkpt lat="45.94639" lon="4.47038">
        <ele>433.1</ele>
        <time>2021-12-21T12:06:23Z</time>
      </trkpt>
      <trkpt lat="45.94609" lon="4.47081">
        <ele>434.5</ele>
        <time>2021-12-21T12:06:35Z</time>
      </trkpt>
      <trkpt lat="45.94618" lon="4.47069">
        <ele>434.5</ele>
        <time>2021-12-21T12:06:53Z</time>
      </trkpt>
      <trkpt lat="45.94578" lon="4.47101">
        <ele>444.4</ele>
        <time>2021-12-21T12:07:03Z</time>
      </trkpt>
      <trkpt lat="45.94513" lon="4.47127">
        <ele>460.9</ele>
        <time>2021-12-21T12:07:22Z</time>
      </trkpt>
      <trkpt lat="45.94431" lon="4.47148">
        <ele>478.6</ele>
        <time>2021-12-21T12:07:34Z</time>
      </trkpt>
      <trkpt lat="45.94388" lon="4.47163">
        <ele>485.4</ele>
        <time>2021-12-21T12:07:46Z</time>
      </trkpt>
      <trkpt lat="45.94353" lon="4.47195">
        <ele>486</ele>
        <time>2021-12-21T12:08:03Z</time>
      </trkpt>
      <trkpt lat="45.94311" lon="4.4721">
        <ele>489.8</ele>
        <time>2021-12-21T12:08:15Z</time>
      </trkpt>
      <trkpt lat="45.94287" lon="4.47206">
        <ele>492.9</ele>
        <time>2021-12-21T12:08:34Z</time>
      </trkpt>
      <trkpt lat="45.94267" lon="4.47189">
        <ele>496.8</ele>
        <time>2021-12-21T12:08:51Z</time>
      </trkpt>
      <trkpt lat="45.94263" lon="4.47187">
        <ele>497</ele>
        <time>2021-12-21T12:08:58Z</time>
      </trkpt>
      <trkpt lat="45.94302" lon="4.47153">
        <ele>506.6</ele>
        <time>2021-12-21T12:09:12Z</time>
      </trkpt>
      <trkpt lat="45.94304" lon="4.47129">
        <ele>512.7</ele>
        <time>2021-12-21T12:09:17Z</time>
      </trkpt>
      <trkpt lat="45.94282" lon="4.47109">
        <ele>518.2</ele>
        <time>2021-12-21T12:09:27Z</time>
      </trkpt>
      <trkpt lat="45.94262" lon="4.47076">
        <ele>521.7</ele>
        <time>2021-12-21T12:09:35Z</time>
      </trkpt>
      <trkpt lat="45.94277" lon="4.47065">
        <ele>526.9</ele>
        <time>2021-12-21T12:09:42Z</time>
      </trkpt>
      <trkpt lat="45.94307" lon="4.47028">
        <ele>535.9</ele>
        <time>2021-12-21T12:09:54Z</time>
      </trkpt>
      <trkpt lat="45.94326" lon="4.46987">
        <ele>543.1</ele>
        <time>2021-12-21T12:09:59Z</time>
      </trkpt>
      <trkpt lat="45.94334" lon="4.46964">
        <ele>547</ele>
        <time>2021-12-21T12:10:10Z</time>
      </trkpt>
      <trkpt lat="45.94332" lon="4.4694">
        <ele>550.5</ele>
        <time>2021-12-21T12:10:15Z</time>
      </trkpt>
      <trkpt lat="45.94329" lon="4.46931">
        <ele>551.6</ele>
        <time>2021-12-21T12:10:32Z</time>
      </trkpt>
      <trkpt lat="45.94325" lon="4.46919">
        <ele>553.1</ele>
        <time>2021-12-21T12:10:39Z</time>
      </trkpt>
      <trkpt lat="45.94264" lon="4.46888">
        <ele>559.1</ele>
        <time>2021-12-21T12:10:53Z</time>
      </trkpt>
      <trkpt lat="45.94211" lon="4.46834">
        <ele>570.3</ele>
        <time>2021-12-21T12:11:08Z</time>
      </trkpt>
      <trkpt lat="45.94162" lon="4.46808">
        <ele>579.9</ele>
        <time>2021-12-21T12:11:19Z</time>
      </trkpt>
      <trkpt lat="45.94111" lon="4.46797">
        <ele>586.2</ele>
        <time>2021-12-21T12:11:24Z</time>
      </trkpt>
      <trkpt lat="45.94046" lon="4.4682">
        <ele>587.7</ele>
        <time>2021-12-21T12:11:40Z</time>
      </trkpt>
      <trkpt lat="45.94018" lon="4.46843">
        <ele>587.3</ele>
        <time>2021-12-21T12:11:55Z</time>
      </trkpt>
      <trkpt lat="45.93994" lon="4.46838">
        <ele>587.2</ele>
        <time>2021-12-21T12:11:57Z</time>
      </trkpt>
      <trkpt lat="45.93959" lon="4.46802">
        <ele>587</ele>
        <time>2021-12-21T12:11:59Z</time>
      </trkpt>
      <trkpt lat="45.93929" lon="4.46778">
        <ele>587.4</ele>
        <time>2021-12-21T12:12:05Z</time>
      </trkpt>
      <trkpt lat="45.93897" lon="4.46767">
        <ele>588.4</ele>
        <time>2021-12-21T12:12:14Z</time>
      </trkpt>
      <trkpt lat="45.93819" lon="4.46774">
        <ele>591.7</ele>
        <time>2021-12-21T12:12:21Z</time>
      </trkpt>
      <trkpt lat="45.93794" lon="4.46763">
        <ele>592.5</ele>
        <time>2021-12-21T12:12:35Z</time>
      </trkpt>
      <trkpt lat="45.9378" lon="4.46745">
        <ele>594</ele>
        <time>2021-12-21T12:12:51Z</time>
      </trkpt>
      <trkpt lat="45.93758" lon="4.46692">
        <ele>595.7</ele>
        <time>2021-12-21T12:13:02Z</time>
      </trkpt>
      <trkpt lat="45.93749" lon="4.46678">
        <ele>595.7</ele>
        <time>2021-12-21T12:13:18Z</time>
      </trkpt>
      <trkpt lat="45.93738" lon="4.46677">
        <ele>595.2</ele>
        <time>2021-12-21T12:13:25Z</time>
      </trkpt>
      <trkpt lat="45.93717" lon="4.46694">
        <ele>592.3</ele>
        <time>2021-12-21T12:13:41Z</time>
      </trkpt>
      <trkpt lat="45.93718" lon="4.46687">
        <ele>593.1</ele>
        <time>2021-12-21T12:13:47Z</time>
      </trkpt>
      <trkpt lat="45.93738" lon="4.46663">
        <ele>596.9</ele>
        <time>2021-12-21T12:14:03Z</time>
      </trkpt>
      <trkpt lat="45.93804" lon="4.46625">
        <ele>603.4</ele>
        <time>2021-12-21T12:14:07Z</time>
      </trkpt>
      <trkpt lat="45.93887" lon="4.46588">
        <ele>607.6</ele>
        <time>2021-12-21T12:14:25Z</time>
      </trkpt>
      <trkpt lat="45.93932" lon="4.46559">
        <ele>611.3</ele>
        <time>2021-12-21T12:14:37Z</time>
      </trkpt>
      <trkpt lat="45.93964" lon="4.46542">
        <ele>613.4</ele>
        <time>2021-12-21T12:14:55Z</time>
      </trkpt>
      <trkpt lat="45.94006" lon="4.46525">
        <ele>616.2</ele>
        <time>2021-12-21T12:14:59Z</time>
      </trkpt>
      <trkpt lat="45.94043" lon="4.46504">
        <ele>619.1</ele>
        <time>2021-12-21T12:15:10Z</time>
      </trkpt>
      <trkpt lat="45.94058" lon="4.4649">
        <ele>621.1</ele>
        <time>2021-12-21T12:15:22Z</time>
      </trkpt>
      <trkpt lat="45.94069" lon="4.46471">
        <ele>623.1</ele>
        <time>2021-12-21T12:15:37Z</time>
      </trkpt>
      <trkpt lat="45.94088" lon="4.46404">
        <ele>627.6</ele>
        <time>2021-12-21T12:15:57Z</time>
      </trkpt>
      <trkpt lat="45.94097" lon="4.46383">
        <ele>628.4</ele>
        <time>2021-12-21T12:16:03Z</time>
      </trkpt>
      <trkpt lat="45.94109" lon="4.46363">
        <ele>628.8</ele>
        <time>2021-12-21T12:16:14Z</time>
      </trkpt>
      <trkpt lat="45.9415" lon="4.46331">
        <ele>629.3</ele>
        <time>2021-12-21T12:16:20Z</time>
      </trkpt>
      <trkpt lat="45.94161" lon="4.46319">
        <ele>629.7</ele>
        <time>2021-12-21T12:16:25Z</time>
      </trkpt>
      <trkpt lat="45.94193" lon="4.46256">
        <ele>633.8</ele>
        <time>2021-12-21T12:16:32Z</time>
      </trkpt>
      <trkpt lat="45.94203" lon="4.46244">
        <ele>635.1</ele>
        <time>2021-12-21T12:16:48Z</time>
      </trkpt>
      <trkpt lat="45.94319" lon="4.46169">
        <ele>635.4</ele>
        <time>2021-12-21T12:16:58Z</time>
      </trkpt>
      <trkpt lat="45.94365" lon="4.46128">
        <ele>636.6</ele>
        <time>2021-12-21T12:17:05Z</time>
      </trkpt>
      <trkpt lat="45.94402" lon="4.46101">
        <ele>634.8</ele>
        <time>2021-12-21T12:17:14Z</time>
      </trkpt>
      <trkpt lat="45.9443" lon="4.46087">
        <ele>633.6</ele>
        <time>2021-12-21T12:17:28Z</time>
      </trkpt>
      <trkpt lat="45.94487" lon="4.45991">
        <ele>631.7</ele>
        <time>2021-12-21T12:17:38Z</time>
      </trkpt>
      <trkpt lat="45.94499" lon="4.45963">
        <ele>632.3</ele>
        <time>2021-12-21T12:17:56Z</time>
      </trkpt>
      <trkpt lat="45.9451" lon="4.45898">
        <ele>632.6</ele>
        <time>2021-12-21T12:18:10Z</time>
      </trkpt>
      <trkpt lat="45.94518" lon="4.45876">
        <ele>633.8</ele>
        <time>2021-12-21T12:18:27Z</time>
      </trkpt>
      <trkpt lat="45.94552" lon="4.45803">
        <ele>635.5</ele>
        <time>2021-12-21T12:18:35Z</time>
      </trkpt>
      <trkpt lat="45.94578" lon="4.45768">
        <ele>635.4</ele>
        <time>2021-12-21T12:18:51Z</time>
      </trkpt>
      <trkpt lat="45.9461" lon="4.45742">
        <ele>634.7</ele>
        <time>2021-12-21T12:19:01Z</time>
      </trkpt>
      <trkpt lat="45.94643" lon="4.45732">
        <ele>634</ele>
        <time>2021-12-21T12:19:17Z</time>
      </trkpt>
      <trkpt lat="45.94693" lon="4.4574">
        <ele>632.6</ele>
        <time>2021-12-21T12:19:29Z</time>
      </trkpt>
      <trkpt lat="45.94787" lon="4.45766">
        <ele>627.2</ele>
        <time>2021-12-21T12:19:36Z</time>
      </trkpt>
      <trkpt lat="45.94862" lon="4.45776">
        <ele>621.9</ele>
        <time>2021-12-21T12:19:51Z</time>
      </trkpt>
      <trkpt lat="45.94875" lon="4.45773">
        <ele>622.4</ele>
        <time>2021-12-21T12:19:58Z</time>
      </trkpt>
      <trkpt lat="45.94887" lon="4.4576">
        <ele>622.9</ele>
        <time>2021-12-21T12:20:16Z</time>
      </trkpt>
      <trkpt lat="45.94888" lon="4.45759">
        <ele>623</ele>
        <time>2021-12-21T12:20:31Z</time>
      </trkpt>
      <trkpt lat="45.94951" lon="4.45705">
        <ele>627.4</ele>
        <time>2021-12-21T12:20:50Z</time>
      </trkpt>
      <trkpt lat="45.94961" lon="4.45688">
        <ele>629</ele>
        <time>2021-12-21T12:21:06Z</time>
      </trkpt>
      <trkpt lat="45.94971" lon="4.45661">
        <ele>631.1</ele>
        <time>2021-12-21T12:21:21Z</time>
      </trkpt>
      <trkpt lat="45.94981" lon="4.45641">
        <ele>632.9</ele>
        <time>2021-12-21T12:21:39Z</time>
      </trkpt>
      <trkpt lat="45.94997" lon="4.45616">
        <ele>636.1</ele>
        <time>2021-12-21T12:21:59Z</time>
      </trkpt>
      <trkpt lat="45.95008" lon="4.45608">
        <ele>638.1</ele>
        <time>2021-12-21T12:22:19Z</time>
      </trkpt>
      <trkpt lat="45.95023" lon="4.45602">
        <ele>640.3</ele>
        <time>2021-12-21T12:22:30Z</time>
      </trkpt>
      <trkpt lat="45.95039" lon="4.4559">
        <ele>643</ele>
        <time>2021-12-21T12:22:33Z</time>
      </trkpt>
      <trkpt lat="45.95056" lon="4.45574">
        <ele>646</ele>
        <time>2021-12-21T12:22:51Z</time>
      </trkpt>
      <trkpt lat="45.95069" lon="4.45553">
        <ele>648.3</ele>
        <time>2021-12-21T12:23:03Z</time>
      </trkpt>
      <trkpt lat="45.9508" lon="4.45527">
        <ele>651.8</ele>
        <time>2021-12-21T12:23:08Z</time>
      </trkpt>
      <trkpt lat="45.95088" lon="4.45502">
        <ele>654.8</ele>
        <time>2021-12-21T12:23:10Z</time>
      </trkpt>
      <trkpt lat="45.95089" lon="4.45479">
        <ele>657.4</ele>
        <time>2021-12-21T12:23:21Z</time>
      </trkpt>
      <trkpt lat="45.95095" lon="4.45453">
        <ele>660.1</ele>
        <time>2021-12-21T12:23:26Z</time>
      </trkpt>
      <trkpt lat="45.95109" lon="4.45433">
        <ele>662.2</ele>
        <time>2021-12-21T12:23:42Z</time>
      </trkpt>
      <trkpt lat="45.95131" lon="4.4541">
        <ele>662.9</ele>
        <time>2021-12-21T12:23:48Z</time>
      </trkpt>
      <trkpt lat="45.95203" lon="4.45342">
        <ele>666.3</ele>
        <time>2021-12-21T12:24:08Z</time>
      </trkpt>
      <trkpt lat="45.95236" lon="4.45304">
        <ele>665.5</ele>
        <time>2021-12-21T12:24:21Z</time>
      </trkpt>
      <trkpt lat="45.9525" lon="4.45297">
        <ele>665.3</ele>
        <time>2021-12-21T12:24:30Z</time>
      </trkpt>
      <trkpt lat="45.95271" lon="4.45299">
        <ele>663.9</ele>
        <time>2021-12-21T12:24:45Z</time>
      </trkpt>
      <trkpt lat="45.95293" lon="4.45296">
        <ele>662.8</ele>
        <time>2021-12-21T12:24:54Z</time>
      </trkpt>
      <trkpt lat="45.9531" lon="4.45289">
        <ele>662.6</ele>
        <time>2021-12-21T12:25:11Z</time>
      </trkpt>
      <trkpt lat="45.95329" lon="4.45271">
        <ele>663.1</ele>
        <time>2021-12-21T12:25:13Z</time>
      </trkpt>
      <trkpt lat="45.95345" lon="4.45248">
        <ele>662.5</ele>
        <time>2021-12-21T12:25:26Z</time>
      </trkpt>
      <trkpt lat="45.95364" lon="4.45209">
        <ele>660.9</ele>
        <time>2021-12-21T12:25:33Z</time>
      </trkpt>
      <trkpt lat="45.95386" lon="4.45171">
        <ele>658.1</ele>
        <time>2021-12-21T12:25:39Z</time>
      </trkpt>
      <trkpt lat="45.95404" lon="4.45134">
        <ele>656.9</ele>
        <time>2021-12-21T12:25:46Z</time>
      </trkpt>
      <trkpt lat="45.95432" lon="4.45063">
        <ele>657.6</ele>
        <time>2021-12-21T12:25:51Z</time>
      </trkpt>
      <trkpt lat="45.9547" lon="4.45014">
        <ele>659.5</ele>
        <time>2021-12-21T12:26:05Z</time>
      </trkpt>
      <trkpt lat="45.95492" lon="4.44994">
        <ele>660</ele>
        <time>2021-12-21T12:26:19Z</time>
      </trkpt>
      <trkpt lat="45.95493" lon="4.44986">
        <ele>660.5</ele>
        <time>2021-12-21T12:26:32Z</time>
      </trkpt>
      <trkpt lat="45.95492" lon="4.44994">
        <ele>660</ele>
        <time>2021-12-21T12:26:48Z</time>
      </trkpt>
      <trkpt lat="45.95482" lon="4.44983">
        <ele>659.7</ele>
        <time>2021-12-21T12:27:00Z</time>
      </trkpt>
      <trkpt lat="45.95472" lon="4.44963">
        <ele>659.3</ele>
        <time>2021-12-21T12:27:07Z</time>
      </trkpt>
      <trkpt lat="45.95464" lon="4.44926">
        <ele>658.5</ele>
        <time>2021-12-21T12:27:18Z</time>
      </trkpt>
      <trkpt lat="45.95466" lon="4.44604">
        <ele>653.6</ele>
        <time>2021-12-21T12:27:21Z</time>
      </trkpt>
      <trkpt lat="45.95464" lon="4.44582">
        <ele>653.3</ele>
        <time>2021-12-21T12:27:23Z</time>
      </trkpt>
      <trkpt lat="45.95454" lon="4.44562">
        <ele>652</ele>
        <time>2021-12-21T12:27:28Z</time>
      </trkpt>
      <trkpt lat="45.95384" lon="4.44518">
        <ele>649.2</ele>
        <time>2021-12-21T12:27:44Z</time>
      </trkpt>
      <trkpt lat="45.95408" lon="4.44484">
        <ele>652</ele>
        <time>2021-12-21T12:27:58Z</time>
      </trkpt>
      <trkpt lat="45.95434" lon="4.44422">
        <ele>656.7</ele>
        <time>2021-12-21T12:28:07Z</time>
      </trkpt>
      <trkpt lat="45.95441" lon="4.44386">
        <ele>658.1</ele>
        <time>2021-12-21T12:28:24Z</time>
      </trkpt>
      <trkpt lat="45.95445" lon="4.44316">
        <ele>660.3</ele>
        <time>2021-12-21T12:28:41Z</time>
      </trkpt>
      <trkpt lat="45.95449" lon="4.44288">
        <ele>661.4</ele>
        <time>2021-12-21T12:28:54Z</time>
      </trkpt>
      <trkpt lat="45.95454" lon="4.44264">
        <ele>661.9</ele>
        <time>2021-12-21T12:29:12Z</time>
      </trkpt>
      <trkpt lat="45.95459" lon="4.44249">
        <ele>662.5</ele>
        <time>2021-12-21T12:29:26Z</time>
      </trkpt>
      <trkpt lat="45.95472" lon="4.44222">
        <ele>663.9</ele>
        <time>2021-12-21T12:29:46Z</time>
      </trkpt>
      <trkpt lat="45.95482" lon="4.4421">
        <ele>664.7</ele>
        <time>2021-12-21T12:30:03Z</time>
      </trkpt>
      <trkpt lat="45.95495" lon="4.44199">
        <ele>665.7</ele>
        <time>2021-12-21T12:30:07Z</time>
      </trkpt>
      <trkpt lat="45.95527" lon="4.44176">
        <ele>668.2</ele>
        <time>2021-12-21T12:30:22Z</time>
      </trkpt>
      <trkpt lat="45.95547" lon="4.44156">
        <ele>670</ele>
        <time>2021-12-21T12:30:38Z</time>
      </trkpt>
      <trkpt lat="45.95573" lon="4.44117">
        <ele>671.4</ele>
        <time>2021-12-21T12:30:58Z</time>
      </trkpt>
      <trkpt lat="45.9559" lon="4.44088">
        <ele>674.3</ele>
        <time>2021-12-21T12:31:07Z</time>
      </trkpt>
      <trkpt lat="45.95599" lon="4.44065">
        <ele>674.8</ele>
        <time>2021-12-21T12:31:24Z</time>
      </trkpt>
      <trkpt lat="45.95613" lon="4.44008">
        <ele>676.7</ele>
        <time>2021-12-21T12:31:26Z</time>
      </trkpt>
      <trkpt lat="45.95626" lon="4.43915">
        <ele>679.4</ele>
        <time>2021-12-21T12:31:39Z</time>
      </trkpt>
      <trkpt lat="45.95631" lon="4.43892">
        <ele>680.8</ele>
        <time>2021-12-21T12:31:55Z</time>
      </trkpt>
      <trkpt lat="45.95643" lon="4.43856">
        <ele>682.5</ele>
        <time>2021-12-21T12:32:03Z</time>
      </trkpt>
      <trkpt lat="45.95651" lon="4.43845">
        <ele>682.7</ele>
        <time>2021-12-21T12:32:18Z</time>
      </trkpt>
      <trkpt lat="45.95672" lon="4.43824">
        <ele>684.4</ele>
        <time>2021-12-21T12:32:21Z</time>
      </trkpt>
      <trkpt lat="45.95689" lon="4.43816">
        <ele>685.5</ele>
        <time>2021-12-21T12:32:37Z</time>
      </trkpt>
      <trkpt lat="45.957" lon="4.43815">
        <ele>686.2</ele>
        <time>2021-12-21T12:32:49Z</time>
      </trkpt>
      <trkpt lat="45.95715" lon="4.43815">
        <ele>687.4</ele>
        <time>2021-12-21T12:32:55Z</time>
      </trkpt>
      <trkpt lat="45.95737" lon="4.4382">
        <ele>688.6</ele>
        <time>2021-12-21T12:33:07Z</time>
      </trkpt>
      <trkpt lat="45.95771" lon="4.43835">
        <ele>690.8</ele>
        <time>2021-12-21T12:33:11Z</time>
      </trkpt>
      <trkpt lat="45.95815" lon="4.43863">
        <ele>695.1</ele>
        <time>2021-12-21T12:33:23Z</time>
      </trkpt>
      <trkpt lat="45.95823" lon="4.43865">
        <ele>695.3</ele>
        <time>2021-12-21T12:33:41Z</time>
      </trkpt>
      <trkpt lat="45.95835" lon="4.43865">
        <ele>695.2</ele>
        <time>2021-12-21T12:33:59Z</time>
      </trkpt>
      <trkpt lat="45.95844" lon="4.43863">
        <ele>695.9</ele>
        <time>2021-12-21T12:34:05Z</time>
      </trkpt>
      <trkpt lat="45.95857" lon="4.43852">
        <ele>696.2</ele>
        <time>2021-12-21T12:34:11Z</time>
      </trkpt>
      <trkpt lat="45.9586" lon="4.43849">
        <ele>696</ele>
        <time>2021-12-21T12:34:22Z</time>
      </trkpt>
      <trkpt lat="45.95692" lon="4.43649">
        <ele>653.4</ele>
        <time>2021-12-21T12:34:27Z</time>
      </trkpt>
      <trkpt lat="45.9565" lon="4.43608">
        <ele>644.1</ele>
        <time>2021-12-21T12:34:29Z</time>
      </trkpt>
      <trkpt lat="45.95584" lon="4.43593">
        <ele>629.9</ele>
        <time>2021-12-21T12:34:49Z</time>
      </trkpt>
      <trkpt lat="45.95495" lon="4.43565">
        <ele>612.5</ele>
        <time>2021-12-21T12:35:04Z</time>
      </trkpt>
      <trkpt lat="45.95444" lon="4.43523">
        <ele>605.2</ele>
        <time>2021-12-21T12:35:23Z</time>
      </trkpt>
      <trkpt lat="45.9538" lon="4.43426">
        <ele>593.9</ele>
        <time>2021-12-21T12:35:27Z</time>
      </trkpt>
      <trkpt lat="45.95345" lon="4.43432">
        <ele>587.2</ele>
        <time>2021-12-21T12:35:40Z</time>
      </trkpt>
      <trkpt lat="45.95274" lon="4.43477">
        <ele>568.5</ele>
        <time>2021-12-21T12:35:58Z</time>
      </trkpt>
      <trkpt lat="45.95247" lon="4.43435">
        <ele>557.2</ele>
        <time>2021-12-21T12:36:15Z</time>
      </trkpt>
      <trkpt lat="45.95219" lon="4.43452">
        <ele>551.7</ele>
        <time>2021-12-21T12:36:19Z</time>
      </trkpt>
      <trkpt lat="45.95187" lon="4.43441">
        <ele>544.1</ele>
        <time>2021-12-21T12:36:23Z</time>
      </trkpt>
      <trkpt lat="45.95171" lon="4.4346">
        <ele>542.1</ele>
        <time>2021-12-21T12:36:35Z</time>
      </trkpt>
      <trkpt lat="45.95102" lon="4.43457">
        <ele>533.4</ele>
        <time>2021-12-21T12:36:39Z</time>
      </trkpt>
      <trkpt lat="45.95103" lon="4.43457">
        <ele>533.4</ele>
        <time>2021-12-21T12:36:56Z</time>
      </trkpt>
      <trkpt lat="45.95066" lon="4.43428">
        <ele>531.2</ele>
        <time>2021-12-21T12:36:59Z</time>
      </trkpt>
      <trkpt lat="45.94976" lon="4.43388">
        <ele>534.7</ele>
        <time>2021-12-21T12:37:02Z</time>
      </trkpt>
      <trkpt lat="45.94943" lon="4.43379">
        <ele>534.9</ele>
        <time>2021-12-21T12:37:20Z</time>
      </trkpt>
      <trkpt lat="45.94925" lon="4.43369">
        <ele>533.8</ele>
        <time>2021-12-21T12:37:39Z</time>
      </trkpt>
      <trkpt lat="45.9488" lon="4.43332">
        <ele>527.5</ele>
        <time>2021-12-21T12:37:53Z</time>
      </trkpt>
      <trkpt lat="45.94784" lon="4.43268">
        <ele>516.1</ele>
        <time>2021-12-21T12:37:56Z</time>
      </trkpt>
      <trkpt lat="45.94746" lon="4.43237">
        <ele>511.9</ele>
        <time>2021-12-21T12:38:00Z</time>
      </trkpt>
      <trkpt lat="45.94726" lon="4.43217">
        <ele>508.3</ele>
        <time>2021-12-21T12:38:14Z</time>
      </trkpt>
      <trkpt lat="45.94722" lon="4.43208">
        <ele>506.8</ele>
        <time>2021-12-21T12:38:16Z</time>
      </trkpt>
      <trkpt lat="45.94694" lon="4.43098">
        <ele>487.1</ele>
        <time>2021-12-21T12:38:24Z</time>
      </trkpt>
      <trkpt lat="45.94681" lon="4.43095">
        <ele>485</ele>
        <time>2021-12-21T12:38:32Z</time>
      </trkpt>
      <trkpt lat="45.94676" lon="4.43084">
        <ele>483</ele>
        <time>2021-12-21T12:38:51Z</time>
      </trkpt>
      <trkpt lat="45.94673" lon="4.43072">
        <ele>481.1</ele>
        <time>2021-12-21T12:39:10Z</time>
      </trkpt>
      <trkpt lat="45.94673" lon="4.43062">
        <ele>479.7</ele>
        <time>2021-12-21T12:39:17Z</time>
      </trkpt>
    </trkseg>
  </trk>
</gpx>